GFSSE_700_temp_021.txt.gz
Temp
9 7 7 7 7 7 7 7 7 7 7 7 7 7 7 7 7 7 7 7 6 6 6 6 5 5 5 5 4 4 4 4 4 4 4 5 5 5 4 4 4 4 4
8 8 7 7 7 7 7 7 7 7 7 7 7 7 7 7 7 6 6 6 6 6 6 6 5 5 5 4 4 4 4 4 5 4 5 5 5 4 4 4 4 4 4
8 7 7 7 7 7 7 7 7 7 7 7 7 7 7 7 6 6 6 6 6 6 6 5 5 5 5 4 5 4 5 5 5 5 4 4 4 4 3 3 3 3 3
8 7 7 7 6 7 7 7 7 7 7 7 7 7 7 6 6 6 6 6 6 5 5 5 5 5 4 4 4 5 5 5 5 4 4 4 4 3 3 3 3 3 3
7 7 6 6 6 7 6 6 7 7 7 7 6 6 6 6 6 6 6 5 5 5 5 5 4 4 4 4 4 4 5 5 4 4 4 4 3 3 3 3 3 3 3
7 7 6 6 6 6 6 7 7 6 6 6 6 6 6 6 5 5 5 5 5 5 4 4 4 4 4 4 4 4 4 4 4 4 4 3 3 3 3 3 4 3 2
7 6 6 6 6 6 7 6 6 6 6 6 6 6 6 5 5 5 5 5 4 5 5 4 4 4 4 4 4 4 4 4 3 3 3 3 3 3 4 4 4 3 3
5 6 6 6 6 6 6 6 6 6 6 6 6 6 5 5 5 5 4 4 4 4 4 4 4 4 3 3 3 3 3 3 3 3 3 3 3 3 3 4 4 3 3
6 6 6 6 6 6 6 6 6 6 6 6 5 5 5 4 4 4 4 4 4 4 4 4 3 3 3 2 2 2 3 3 3 3 2 2 2 2 2 3 3 3 3
6 6 6 6 6 6 6 6 6 6 6 5 5 5 4 4 4 4 4 4 4 4 4 4 3 3 2 2 2 2 2 2 2 2 2 2 2 1 2 2 2 2 2
6 6 6 6 6 6 6 6 6 5 5 5 5 5 5 4 4 4 4 4 4 4 3 3 3 3 2 2 1 1 1 2 2 2 2 2 2 1 1 1 2 2 2
6 5 5 5 5 5 5 5 5 5 5 5 5 4 5 5 4 4 4 3 3 3 3 3 3 2 2 2 2 1 1 1 1 1 1 1 2 2 1 1 1 1 2
5 5 4 4 4 5 5 5 5 5 4 4 4 4 4 4 4 3 3 3 2 2 2 2 2 2 2 1 1 1 1 1 1 0 1 1 1 1 1 1 1 1 1
5 5 4 5 5 5 5 4 4 4 4 4 4 4 4 3 3 3 2 2 1 1 1 1 1 1 1 1 1 1 1 1 1 1 1 0 0 1 1 1 1 1 1
6 5 5 4 4 4 5 5 5 5 4 4 4 3 3 3 2 2 1 1 1 1 0 0 -0 -0 -0 0 0 0 1 1 1 1 1 1 1 0 -0 0 0 0 1
6 5 5 5 4 4 4 4 4 4 4 3 3 3 3 2 2 2 1 1 0 -0 -1 -0 -0 -0 -0 -0 0 1 0 0 0 -0 -0 0 0 0 0 0 -0 -0 -0
5 4 4 4 4 3 3 3 3 3 3 3 2 2 2 2 2 1 1 1 0 -0 -1 -1 -1 -1 -0 -0 -0 -0 0 0 0 0 -0 -0 -0 -0 0 0 0 -0 -0
4 4 3 3 3 2 2 2 2 2 2 2 2 2 2 2 1 1 0 -0 -1 -1 -2 -1 -1 -1 -1 -1 -1 -0 -0 -0 -0 -0 -0 -1 -1 -1 -1 -1 -1 -0 -0
4 4 3 4 3 1 1 1 2 2 2 2 1 1 1 0 -0 -0 -1 -1 -2 -2 -2 -2 -1 -1 -2 -2 -2 -1 -1 -1 -1 -1 -1 -1 -1 -1 -2 -2 -2 -2 -1
4 4 3 3 2 2 1 2 2 2 2 2 1 0 -0 -1 -1 -2 -2 -2 -2 -2 -2 -2 -2 -2 -2 -2 -2 -2 -2 -2 -3 -2 -2 -2 -2 -2 -2 -2 -2 -3 -2
4 3 3 2 3 2 2 2 2 2 1 0 -1 -0 -1 -1 -2 -2 -2 -3 -3 -3 -3 -3 -2 -2 -3 -3 -3 -3 -3 -3 -3 -3 -3 -3 -3 -3 -3 -3 -3 -3 -3
4 3 4 3 2 2 1 1 0 -0 -1 -1 -1 -2 -2 -3 -3 -3 -3 -3 -3 -3 -3 -3 -4 -4 -4 -4 -4 -4 -4 -4 -4 -4 -4 -4 -4 -4 -4 -4 -4 -4 -4
4 4 3 2 1 -0 -0 -1 -1 -2 -2 -2 -2 -2 -2 -2 -2 -2 -2 -2 -3 -3 -4 -5 -5 -6 -6 -6 -6 -6 -6 -6 -6 -6 -5 -5 -5 -5 -5 -5 -5 -5 -5
3 2 1 1 0 -0 -1 -1 -1 -1 -1 -1 -1 -1 -1 -1 -2 -2 -3 -4 -5 -6 -6 -6 -6 -7 -7 -7 -7 -7 -8 -8 -8 -8 -7 -7 -7 -6 -6 -6 -6 -6 -6
2 2 1 1 1 1 1 0 -0 -1 -1 -1 -1 -1 -3 -5 -5 -5 -6 -5 -6 -7 -7 -6 -7 -7 -7 -7 -8 -8 -8 -8 -9 -9 -8 -8 -9 -9 -10 -9 -9 -8 -8
2 2 1 1 1 0 -1 -1 -1 -2 -2 -2 -2 -3 -5 -6 -6 -6 -6 -7 -7 -8 -8 -8 -9 -9 -9 -9 -9 -9 -9 -9 -9 -11 -12 -11 -12 -11 -11 -12 -12 -11 -11

GFSSE_700_temp_024.txt.gz
Temp
8 7 7 7 6 6 7 7 6 6 6 6 7 7 7 7 6 6 6 5 6 6 6 6 5 5 5 5 5 5 5 5 5 5 5 5 5 5 4 4 4 4 4
8 7 6 7 7 6 7 6 6 6 6 6 7 7 7 6 6 6 6 6 6 6 6 6 5 5 5 5 5 5 5 5 5 5 4 4 5 4 4 3 3 3 3
6 6 6 7 6 6 6 6 6 6 6 6 7 7 6 6 6 6 6 6 6 5 5 5 5 5 5 5 5 5 5 5 5 5 5 4 4 4 4 4 4 3 3
6 6 6 6 6 6 6 6 6 6 7 7 6 6 6 6 6 6 6 5 5 5 5 5 5 5 5 5 5 5 5 5 5 5 5 4 4 4 4 3 3 3 3
7 7 6 6 6 6 6 6 7 7 6 6 6 6 6 6 5 5 5 5 5 5 5 4 4 4 4 4 5 5 4 4 4 5 4 4 4 4 3 3 3 3 3
7 6 6 6 6 6 6 6 7 6 6 6 6 6 5 5 5 5 5 5 5 5 5 5 5 5 5 4 4 4 4 4 3 4 4 4 4 3 3 4 4 3 3
7 6 5 5 6 6 6 6 6 6 6 6 6 5 5 5 5 5 5 5 5 4 4 4 4 4 4 4 4 4 4 4 3 4 3 3 4 4 4 4 4 3 3
6 6 5 5 5 6 6 6 6 6 6 6 5 5 5 5 5 5 4 4 4 4 4 4 4 3 3 3 3 3 3 3 3 3 3 2 3 3 4 4 3 4 3
5 5 5 6 6 6 6 6 6 6 5 5 5 5 4 4 4 4 4 4 4 4 3 3 3 3 2 2 2 2 2 2 2 2 2 2 2 2 2 3 3 3 3
5 6 6 6 6 6 6 6 6 5 5 5 5 5 4 5 4 4 4 4 3 3 3 3 3 2 2 2 1 1 1 2 2 2 2 2 2 2 2 2 2 2 2
6 6 6 5 5 5 6 6 5 5 5 5 4 4 4 4 4 4 4 3 3 3 2 2 2 2 2 1 1 1 1 1 1 1 2 2 2 2 2 2 1 2 2
5 5 5 5 5 5 5 5 5 5 5 4 4 4 4 4 4 4 3 3 3 2 2 1 1 1 1 1 1 1 1 1 1 1 1 1 1 1 2 2 2 2 2
5 5 5 5 5 5 5 5 4 4 4 4 4 4 4 3 3 3 3 2 2 1 1 1 0 0 1 1 1 1 1 1 1 1 1 0 1 1 1 2 2 2 2
5 5 4 4 4 5 5 4 4 4 4 4 3 3 3 3 3 2 2 2 1 1 0 0 0 0 0 1 1 1 1 1 1 1 1 1 1 1 1 1 1 2 2
5 4 4 3 4 3 4 4 4 3 3 3 3 3 3 3 2 2 1 1 1 0 -0 -0 -0 -0 -0 -0 -0 -0 -0 0 0 1 1 1 1 2 1 1 1 1 1
5 4 3 3 3 3 3 2 2 3 3 3 3 3 2 2 1 1 1 1 0 -0 -0 -1 -1 -1 -1 -1 -0 -1 -1 -0 -0 -0 0 1 1 1 1 1 1 1 0
4 3 3 3 3 2 2 2 1 1 2 2 2 2 2 1 1 1 0 -0 -1 -1 -1 -2 -2 -2 -2 -1 -1 -1 -1 -1 -1 -1 -1 -1 -0 0 0 1 1 1 0
4 3 3 3 4 3 2 1 0 2 2 2 2 1 1 1 0 -0 -1 -1 -2 -2 -2 -2 -2 -2 -2 -2 -1 -1 -1 -2 -2 -2 -2 -1 -1 -1 -1 -1 -0 0 0
4 4 3 3 3 2 1 1 1 1 1 1 1 0 -0 -0 -1 -1 -2 -1 -2 -2 -2 -2 -3 -3 -2 -2 -2 -2 -2 -3 -3 -3 -3 -2 -2 -2 -2 -2 -2 -2 -1
4 4 4 3 2 1 1 1 1 1 1 0 -0 -0 -1 -1 -1 -2 -1 -1 -1 -1 -2 -2 -2 -3 -2 -2 -2 -2 -2 -3 -3 -3 -4 -4 -4 -3 -3 -3 -3 -2 -2
4 4 2 2 1 1 1 1 1 0 0 -0 -1 -1 -1 -2 -2 -2 -2 -2 -2 -2 -2 -2 -2 -2 -3 -3 -3 -3 -3 -4 -4 -5 -5 -5 -5 -5 -5 -5 -5 -4 -3
3 2 2 2 2 1 1 0 0 -1 -1 -2 -2 -2 -2 -2 -2 -2 -2 -2 -2 -2 -2 -3 -3 -4 -4 -4 -5 -6 -6 -6 -6 -6 -6 -6 -6 -6 -6 -5 -6 -6 -5
3 3 2 2 1 0 -0 -1 -1 -1 -1 -1 -1 -1 -1 -1 -1 -1 -1 -1 -2 -2 -4 -5 -5 -5 -6 -7 -7 -8 -8 -8 -8 -8 -8 -7 -7 -7 -7 -7 -6 -6 -6
3 2 2 1 1 0 -0 -0 -0 -0 -1 -1 -1 -1 -1 -1 -1 -2 -2 -4 -5 -5 -5 -6 -6 -7 -8 -8 -8 -8 -8 -9 -9 -8 -8 -8 -8 -8 -8 -8 -8 -8 -7
2 2 2 1 1 0 0 -1 -1 -1 -2 -2 -2 -2 -2 -3 -3 -5 -5 -6 -6 -6 -7 -8 -8 -8 -8 -9 -9 -10 -9 -10 -9 -10 -9 -9 -9 -10 -10 -10 -11 -11 -10
2 1 1 1 0 -0 -1 -1 -1 -2 -2 -2 -2 -3 -3 -4 -5 -5 -6 -6 -7 -7 -8 -8 -9 -9 -10 -10 -10 -11 -11 -10 -10 -10 -11 -11 -12 -13 -13 -12 -12 -13 -12

GFSSE_700_temp_027.txt.gz
Temp
8 7 7 6 6 6 6 6 6 6 6 6 6 6 6 6 6 6 6 6 6 6 6 6 6 6 6 6 6 6 6 6 6 6 6 5 5 5 4 4 4 4 4
7 7 6 6 6 6 6 6 6 6 6 6 6 6 6 6 6 6 6 5 5 5 5 5 5 6 6 6 6 6 6 6 6 6 6 5 5 5 5 4 4 4 4
7 6 6 6 6 5 6 6 6 6 6 6 6 6 6 6 6 6 6 5 5 5 5 5 5 5 5 5 5 5 5 5 5 6 5 5 5 5 5 4 4 4 3
7 6 6 5 5 5 6 6 6 6 6 6 6 6 6 6 6 5 5 5 5 5 5 5 5 5 5 5 5 5 4 5 5 5 5 5 5 4 4 4 4 4 4
6 6 6 5 5 5 6 6 6 6 6 6 6 6 6 5 5 5 5 5 5 5 5 5 5 5 5 5 5 5 4 4 4 4 4 4 4 4 4 4 4 4 4
5 5 6 5 5 5 5 6 6 6 6 6 6 5 5 5 5 5 5 5 5 5 4 4 4 4 4 4 5 4 4 3 3 4 3 4 4 4 4 4 4 4 3
5 5 5 5 6 5 5 6 6 6 6 6 5 5 5 5 5 5 4 4 4 4 4 4 4 4 4 4 4 4 4 4 3 3 3 3 3 3 3 3 3 4 4
5 5 5 5 5 5 6 6 6 6 5 5 5 5 5 5 4 4 4 4 4 4 3 3 3 3 3 2 2 2 3 3 3 3 2 2 2 3 3 3 3 3 3
5 5 5 5 5 6 6 6 5 5 5 5 5 5 4 4 4 4 4 4 3 3 3 3 3 2 2 2 2 2 2 2 2 2 2 2 2 2 2 3 2 2 2
5 5 5 5 5 5 5 5 5 5 5 5 4 4 4 4 4 4 3 3 3 3 2 2 2 2 2 1 1 1 1 1 1 1 2 2 2 2 2 2 2 2 2
6 6 5 5 5 5 5 5 5 4 4 4 4 4 3 3 3 3 3 3 3 3 2 2 2 2 2 2 1 1 1 1 1 1 1 1 2 2 2 2 2 2 2
6 5 5 5 5 5 4 4 4 4 4 4 3 3 3 3 3 3 3 3 2 2 2 1 1 1 1 1 1 1 1 1 2 2 1 1 1 1 2 2 2 2 1
5 5 5 4 4 4 4 4 4 3 3 3 3 3 3 3 3 2 2 2 2 1 1 1 0 0 1 1 1 1 1 1 1 1 1 2 2 2 2 2 2 2 2
4 4 4 4 4 4 3 3 3 3 3 3 3 3 3 2 2 2 2 1 1 0 0 -0 -0 -1 -0 0 0 1 1 1 1 1 1 1 1 1 1 1 2 2 2
4 4 3 3 3 3 3 2 2 2 2 2 2 2 2 2 2 1 1 0 -0 -0 -1 -1 -1 -1 -1 -0 0 1 1 1 1 1 1 1 2 1 1 1 1 1 2
4 3 3 3 3 3 3 2 2 1 2 3 2 2 2 2 1 1 0 -0 -1 -1 -1 -1 -1 -1 -1 0 0 1 1 1 1 1 1 1 1 1 1 1 1 1 1
3 3 3 3 3 2 2 2 1 1 1 1 1 1 1 1 1 0 -0 -1 -1 -1 -1 -2 -2 -2 -1 -1 -0 -0 -0 -0 -0 -0 -0 -0 -0 0 0 0 -0 -0 0
3 3 3 3 3 2 1 1 -0 2 1 1 1 0 0 -0 -0 -1 -1 -2 -2 -2 -1 -2 -1 -1 -1 -1 -2 -2 -2 -2 -2 -1 -2 -2 -2 -2 -2 -2 -1 -1 -1
3 3 3 3 3 3 0 1 1 1 1 1 1 0 -0 -0 -1 -1 -1 -1 -1 -1 -1 -1 -1 -2 -2 -2 -2 -2 -2 -2 -2 -3 -2 -2 -2 -2 -2 -2 -2 -2 -2
4 4 4 3 2 2 0 2 1 1 0 1 -0 -1 -0 -1 -1 -1 -1 -1 -1 -1 -2 -2 -2 -2 -2 -2 -1 -1 -2 -2 -3 -3 -3 -4 -4 -3 -4 -3 -4 -4 -3
4 4 3 2 1 1 1 1 1 1 1 -1 -1 -1 -1 -1 -1 -2 -2 -2 -2 -2 -2 -2 -2 -2 -2 -2 -2 -2 -3 -3 -4 -5 -5 -6 -6 -6 -6 -6 -5 -5 -5
4 3 3 2 2 1 1 1 -0 -0 -1 -1 -1 -1 -1 -2 -2 -2 -2 -2 -2 -2 -3 -3 -3 -3 -3 -3 -4 -4 -5 -6 -6 -7 -7 -7 -7 -7 -7 -7 -7 -7 -6
3 3 2 2 1 1 -0 -1 -1 -1 -1 -1 -1 -1 -1 -1 -2 -2 -2 -2 -3 -3 -3 -4 -4 -5 -5 -6 -7 -7 -8 -8 -9 -9 -9 -9 -9 -8 -8 -8 -8 -7 -7
3 2 1 1 1 -0 -1 -1 -1 -1 -1 -1 -2 -2 -2 -2 -3 -3 -3 -3 -4 -4 -5 -6 -6 -7 -7 -8 -9 -9 -10 -10 -10 -10 -11 -10 -10 -10 -9 -9 -9 -9 -9
2 1 1 1 1 0 -0 -1 -1 -2 -2 -2 -2 -2 -3 -3 -3 -3 -4 -5 -5 -6 -6 -6 -7 -7 -8 -10 -11 -11 -11 -11 -11 -11 -11 -11 -11 -11 -11 -11 -11 -11 -11
1 1 1 1 0 0 -0 -1 -2 -2 -2 -2 -2 -3 -3 -4 -4 -5 -5 -5 -6 -6 -7 -7 -8 -10 -11 -11 -12 -12 -12 -12 -11 -12 -13 -13 -11 -11 -12 -12 -13 -13 -13

GFSSE_700_temp_030.txt.gz
Temp
7 7 7 7 6 6 6 6 6 6 6 6 6 6 6 6 6 6 6 6 6 6 6 6 6 6 6 6 6 6 6 6 6 6 6 6 5 5 5 5 5 5 5
7 7 7 6 6 6 6 6 6 6 6 6 6 6 6 6 6 6 6 6 5 5 5 5 6 5 5 5 5 5 6 6 6 6 6 5 5 5 5 5 4 4 4
7 7 6 6 6 5 5 5 5 5 6 6 6 6 6 6 6 6 5 5 5 5 5 5 5 5 5 5 5 5 5 5 5 5 5 4 5 4 4 4 4 4 4
6 6 6 6 5 5 5 5 5 5 6 6 6 6 6 6 5 5 5 5 5 5 5 5 5 5 5 5 5 5 5 5 4 5 5 5 4 4 4 4 4 4 4
5 6 6 5 5 5 5 5 6 6 5 6 6 5 5 5 5 5 5 5 5 5 4 4 5 5 5 5 5 5 5 5 4 4 4 4 4 4 4 3 3 4 4
5 5 5 5 5 5 5 5 5 5 5 5 5 5 5 5 5 5 5 4 4 4 4 4 4 4 4 4 4 4 4 4 4 4 3 3 3 3 3 3 3 3 3
5 5 5 5 5 5 5 5 5 5 5 5 5 5 5 5 4 4 4 4 4 4 4 3 3 3 3 3 3 3 3 3 3 3 3 3 3 3 3 3 3 3 3
5 5 5 5 5 5 5 5 5 5 5 5 5 4 4 4 4 4 4 4 4 3 3 3 3 3 3 3 3 3 3 3 3 3 2 3 2 2 2 3 3 3 3
4 5 5 5 5 5 5 5 5 5 5 4 4 4 4 4 4 3 3 3 3 3 3 3 2 2 2 2 2 2 2 2 2 2 2 2 2 2 2 2 2 2 2
4 4 5 5 5 5 5 5 5 4 4 4 4 4 4 3 3 3 3 3 3 3 3 2 2 2 1 1 1 1 1 2 1 1 1 2 2 2 2 2 2 1 1
5 5 5 5 5 5 5 5 4 4 4 3 3 3 3 3 3 3 3 3 3 2 2 2 2 2 1 1 1 1 1 1 1 2 1 1 2 2 2 2 2 2 2
5 5 5 5 5 4 4 4 4 3 3 3 3 3 3 2 2 2 2 2 2 2 1 1 1 1 1 1 1 1 1 1 2 2 2 2 2 2 2 2 2 2 2
5 4 4 4 4 4 4 4 3 3 3 3 2 2 2 2 2 2 1 1 1 1 1 1 1 1 1 1 1 1 1 1 2 2 2 2 2 2 2 2 2 2 2
4 4 4 4 4 4 3 3 3 2 2 2 2 2 2 1 1 1 1 1 0 0 0 0 1 0 1 1 1 1 1 2 2 2 2 2 2 2 2 2 2 2 2
4 3 3 4 3 3 3 3 2 2 2 2 1 1 1 1 1 1 0 0 0 -0 -0 -0 -1 -1 -0 -0 0 0 1 1 1 1 1 2 1 2 2 2 2 2 2
4 3 3 3 3 3 3 2 2 2 1 2 1 0 -0 -0 0 -0 -0 -0 -0 -1 -1 -1 -0 -1 -1 -0 -0 0 0 0 0 1 0 0 1 1 1 1 2 2 2
3 3 3 3 3 3 3 2 1 0 1 0 1 -0 1 -0 -0 -0 -1 -0 -0 -0 -1 -1 -0 -1 -1 -1 -1 -1 -1 -1 -0 -0 -1 -1 -0 0 -0 -0 -0 0 0
4 3 3 3 3 3 2 1 0 2 1 2 1 0 0 -0 -0 -0 -1 -0 -0 -1 -1 -1 -1 -1 -1 -1 -1 -1 -1 -1 -1 -1 -0 -0 -0 -1 -0 0 -1 -1 -0
4 3 3 3 3 3 0 0 -0 0 0 1 0 0 -0 -1 -0 -1 -0 -0 -1 -1 -1 -1 -1 -2 -2 -2 -1 -1 -1 -1 -1 -1 -1 -1 -1 -2 -2 -1 -1 -2 -1
4 4 3 3 2 2 1 0 2 1 1 1 1 0 -1 -1 -1 -0 -1 -1 -1 -2 -2 -2 -2 -2 -2 -2 -1 -2 -1 -1 -2 -2 -2 -2 -3 -2 -3 -3 -3 -3 -3
4 4 3 2 2 1 2 1 1 1 1 0 -0 -1 -1 -1 -1 -1 -2 -2 -2 -2 -2 -2 -2 -2 -3 -2 -2 -3 -3 -3 -3 -3 -3 -3 -3 -3 -4 -4 -5 -5 -5
4 4 3 3 2 2 1 1 1 0 -0 -1 -1 -1 -1 -1 -1 -1 -2 -2 -2 -3 -3 -3 -3 -3 -4 -4 -4 -4 -5 -6 -8 -9 -7 -7 -7 -7 -7 -8 -8 -8 -8
4 3 3 2 2 1 1 0 -0 -1 -1 -1 -2 -2 -2 -2 -2 -2 -3 -3 -3 -4 -4 -4 -4 -5 -5 -6 -6 -6 -7 -9 -8 -9 -10 -11 -10 -9 -9 -9 -9 -9 -9
4 3 2 2 1 1 -0 -1 -1 -1 -2 -2 -2 -2 -2 -2 -3 -3 -3 -4 -4 -5 -5 -5 -5 -5 -6 -6 -7 -8 -9 -10 -11 -12 -13 -13 -13 -11 -10 -10 -10 -10 -10
3 2 2 1 1 0 -0 -1 -1 -2 -2 -2 -2 -2 -3 -3 -3 -4 -4 -5 -5 -5 -5 -6 -6 -7 -7 -8 -9 -10 -12 -12 -13 -14 -14 -14 -14 -14 -14 -11 -11 -11 -11
2 2 1 1 1 0 -0 -1 -2 -2 -3 -3 -3 -3 -3 -4 -4 -4 -4 -5 -5 -6 -7 -7 -8 -9 -10 -11 -11 -12 -14 -14 -14 -15 -15 -15 -14 -12 -15 -14 -15 -14 -13

GFSSE_700_temp_033.txt.gz
Temp
7 7 7 8 7 7 6 6 6 6 6 6 6 6 6 7 7 6 6 6 6 6 6 6 6 6 6 6 6 6 6 6 6 6 6 6 5 5 5 5 5 5 5
7 7 7 7 7 6 6 6 6 6 6 6 6 6 6 6 6 6 6 6 6 5 6 6 6 6 6 6 6 6 5 5 5 5 5 5 5 4 4 4 4 4 4
7 7 7 7 7 6 6 6 6 6 6 6 6 6 6 6 6 5 5 5 5 5 5 5 5 5 5 5 5 5 5 5 5 5 3 4 3 4 4 4 4 4 4
6 6 6 6 6 6 5 5 5 6 6 6 6 5 5 5 5 5 5 5 5 5 5 5 5 5 5 5 5 5 5 4 4 4 2 2 3 4 4 4 4 3 4
6 5 5 6 6 6 5 5 6 6 5 5 5 5 5 5 5 5 5 4 4 4 4 4 4 4 4 4 4 5 4 4 4 3 1 4 4 4 3 3 3 3 3
5 5 5 5 6 5 5 5 5 5 5 5 5 5 5 5 4 4 4 4 4 4 4 4 4 4 4 4 4 4 4 4 4 1 2 4 3 3 3 3 3 3 3
4 4 4 5 5 5 5 5 6 5 5 5 5 4 4 4 4 4 4 4 4 4 3 3 3 3 3 3 3 3 3 3 3 2 2 3 3 3 3 3 3 3 3
4 4 4 5 5 5 5 5 5 5 5 4 4 4 4 4 4 4 4 4 4 3 3 3 3 2 2 2 2 2 2 2 2 2 1 3 2 2 2 3 3 3 3
3 3 4 5 5 5 5 5 5 5 4 4 4 4 4 3 3 3 3 3 3 3 3 2 2 2 2 2 1 1 2 2 2 1 0 2 2 2 2 2 2 3 2
4 4 4 4 4 5 5 5 5 4 4 4 4 4 3 3 3 3 3 3 2 2 2 2 2 2 2 2 1 1 1 1 1 1 1 2 2 2 2 2 2 2 2
4 4 4 4 5 5 5 5 4 4 4 3 3 3 3 3 2 2 2 2 2 1 1 1 1 2 2 2 2 1 1 1 1 1 2 2 2 2 2 2 2 2 2
4 4 4 5 5 5 5 4 4 3 3 3 3 3 2 2 2 2 2 1 1 1 1 1 1 1 1 1 1 1 1 1 1 1 2 2 2 2 2 2 2 2 2
4 4 5 5 5 5 4 4 3 3 3 3 3 3 2 2 2 2 1 1 1 1 1 1 1 1 1 1 1 1 1 1 1 1 1 2 2 2 2 2 2 2 2
4 4 5 5 4 4 4 3 3 1 3 2 2 2 1 1 1 1 1 0 0 0 -0 0 -0 0 1 1 1 1 1 1 1 1 1 2 2 2 2 2 2 2 2
5 5 4 4 4 4 3 3 3 2 2 1 1 1 1 1 1 1 0 -0 -1 -0 -0 0 0 0 0 0 1 0 1 1 1 1 1 1 2 2 2 2 2 2 2
4 4 4 4 4 3 3 3 2 2 1 1 1 1 1 1 1 0 -0 -0 -0 0 -0 0 0 0 0 -0 -0 0 0 -0 -0 1 1 0 1 1 1 1 1 2 2
4 4 4 4 4 4 3 3 3 2 1 2 2 2 2 0 0 -0 -0 -1 -1 -0 -0 0 -0 -1 -1 -1 -1 -0 -0 -0 -1 -0 -0 -0 -0 0 1 1 1 1 1
4 4 4 4 3 4 3 3 2 2 2 2 2 1 0 -0 0 -0 -0 -0 -1 -0 -0 -1 -1 -1 -1 -1 -1 -1 -1 -1 -1 -1 -1 -1 -0 -1 -1 0 1 0 0
5 4 4 4 3 3 2 1 1 0 0 1 1 1 0 0 -0 -0 -0 -0 -0 -1 -1 -1 -1 -1 -1 -1 -1 -1 -1 -1 -1 -1 -2 -2 -2 -2 -1 -2 -2 -1 -2
4 4 4 4 3 2 2 2 1 0 1 1 0 0 1 0 -0 -0 -0 -0 -1 -2 -2 -2 -2 -2 -2 -2 -1 -1 -1 -1 -2 -2 -3 -5 -5 -4 -4 -3 -2 -3 -3
4 4 4 3 3 2 2 2 1 1 1 1 1 0 0 -0 -0 -0 -1 -1 -1 -2 -1 -1 -1 -2 -2 -2 -2 -2 -2 -2 -4 -6 -7 -7 -5 -5 -5 -5 -5 -5 -6
4 4 4 3 2 2 2 1 1 1 1 1 0 -0 -1 -1 -1 -1 -1 -2 -2 -2 -3 -3 -2 -3 -3 -3 -4 -4 -4 -4 -5 -8 -7 -8 -9 -10 -11 -10 -9 -10 -9
4 4 4 3 2 2 2 1 1 1 0 -0 -1 -1 -1 -2 -2 -2 -2 -2 -3 -3 -3 -4 -4 -4 -4 -4 -4 -5 -6 -8 -8 -8 -8 -9 -10 -11 -12 -12 -12 -11 -11
4 4 3 3 2 2 1 0 -0 -1 -2 -2 -2 -2 -3 -2 -3 -3 -3 -3 -3 -4 -4 -4 -4 -5 -5 -6 -7 -8 -9 -10 -12 -11 -12 -12 -12 -13 -13 -13 -13 -13 -11
4 3 3 2 1 1 0 -0 -1 -1 -1 -2 -3 -3 -3 -3 -3 -3 -3 -4 -4 -4 -4 -5 -5 -6 -7 -7 -9 -10 -11 -12 -13 -13 -13 -13 -13 -13 -14 -14 -14 -15 -14
4 3 3 2 1 0 0 -0 -0 -1 -1 -2 -2 -2 -3 -3 -4 -4 -4 -5 -5 -5 -6 -6 -7 -8 -9 -10 -11 -12 -13 -14 -14 -14 -14 -14 -14 -12 -14 -15 -15 -15 -15

GFSSE_700_temp_036.txt.gz
Temp
8 7 8 8 8 7 7 7 7 7 6 7 6 6 7 7 7 6 6 6 6 6 6 6 6 6 6 6 6 6 6 5 5 6 5 5 5 5 5 5 5 5 5
8 7 7 7 7 7 7 7 6 6 6 6 6 6 6 6 6 6 6 6 6 5 5 6 6 5 5 6 6 5 5 5 5 5 4 4 4 5 5 5 4 4 4
8 7 7 7 7 7 7 6 6 6 6 6 6 6 6 6 6 5 5 5 5 5 5 5 5 5 5 5 5 5 5 4 3 4 4 3 4 4 4 4 4 4 4
7 7 7 7 7 6 6 6 6 6 6 6 6 6 6 5 5 5 5 5 5 5 5 5 5 5 5 5 5 5 4 3 3 2 2 3 4 4 4 4 4 4 3
6 7 6 6 6 6 6 6 6 6 6 6 5 5 5 5 5 5 4 4 4 4 4 4 4 4 4 4 4 4 3 3 2 1 3 2 3 3 3 4 3 3 3
6 5 5 4 4 5 5 5 6 6 6 5 5 5 5 4 4 4 4 4 4 4 4 4 4 3 3 3 3 3 2 3 3 -0 3 2 2 3 3 3 3 3 3
5 4 4 3 3 5 5 5 5 6 5 5 5 5 4 4 4 4 4 4 4 4 3 3 3 3 3 2 2 2 2 2 2 1 3 2 2 2 2 2 2 3 3
4 3 2 2 2 5 5 5 5 5 5 5 4 4 4 4 4 3 3 3 3 3 3 3 2 2 2 2 2 1 2 1 1 0 2 1 1 2 2 2 2 3 3
4 3 3 2 4 5 5 5 5 5 4 4 4 4 3 3 3 3 3 3 3 3 3 2 2 2 2 2 1 1 1 1 1 1 1 1 1 2 2 2 2 2 2
4 3 3 3 5 4 4 4 4 4 3 4 4 3 3 3 3 2 2 2 2 2 2 2 2 2 2 2 2 1 1 1 1 0 1 1 1 1 2 2 2 2 2
3 3 2 4 4 5 5 4 4 4 4 4 3 3 3 3 3 2 2 2 2 1 1 1 1 1 1 1 2 1 2 1 1 1 1 2 1 1 2 2 2 2 1
3 3 4 4 5 5 5 5 4 4 3 3 3 3 2 2 2 2 2 2 1 1 1 1 1 1 1 1 1 1 1 1 1 1 2 2 2 1 2 2 2 2 2
3 3 3 4 5 5 5 5 4 3 3 3 3 3 3 2 2 2 2 2 1 1 1 1 1 1 1 1 1 1 2 2 1 1 2 2 2 2 2 2 2 2 2
4 4 5 5 5 5 5 3 3 3 3 3 2 2 2 2 2 2 2 1 0 -0 1 0 0 0 0 1 1 1 1 1 1 1 2 2 2 2 2 2 2 2 2
5 5 5 5 5 4 4 4 4 3 2 2 2 3 3 2 3 2 2 0 0 1 -0 0 0 -1 0 1 0 0 1 1 1 0 1 2 1 2 2 2 2 3 2
5 5 5 5 4 4 4 4 3 2 2 2 3 3 3 3 3 2 2 0 -0 -0 -0 0 0 -0 -0 0 0 0 0 1 0 -0 0 0 1 1 2 2 2 2 2
5 4 4 4 4 4 4 4 3 2 2 2 3 4 3 2 2 1 1 0 -0 -0 0 0 -0 -0 -1 -0 0 0 0 0 -0 -0 -1 -1 -0 0 1 1 1 2 1
4 4 4 4 4 4 3 3 3 1 2 2 3 2 2 2 1 1 1 0 0 0 0 0 0 -0 0 0 0 -0 -0 -1 -1 -1 -1 -1 -1 -2 -1 -0 0 1 0
5 5 4 4 4 3 2 2 2 1 1 1 1 2 2 1 1 0 1 0 0 0 1 1 0 0 -0 -1 -1 -1 -1 -0 -1 -1 -2 -2 -3 -3 -2 -2 -1 -1 -1
6 5 4 4 3 3 2 2 3 2 2 2 1 1 1 1 0 0 1 0 -0 0 -0 -1 -1 -1 -1 -1 -1 -1 -1 -1 -1 -2 -2 -3 -3 -3 -3 -4 -3 -3 -2
4 5 4 4 3 3 2 2 3 2 2 2 1 2 1 1 0 0 -0 -0 -0 -1 -1 -1 -1 -1 -1 -1 -1 -1 -1 -2 -2 -4 -3 -4 -5 -6 -6 -6 -6 -7 -6
5 5 4 4 3 3 2 2 2 2 2 1 1 1 1 0 -0 -0 -1 -1 -1 -1 -2 -2 -2 -2 -2 -2 -2 -2 -2 -2 -2 -3 -5 -6 -7 -8 -9 -9 -9 -10 -10
4 5 4 4 3 3 2 2 2 2 1 1 1 0 0 -0 -1 -1 -1 -1 -2 -2 -2 -3 -3 -3 -3 -3 -4 -4 -4 -4 -4 -5 -6 -7 -8 -9 -9 -10 -11 -13 -13
5 5 4 4 3 3 2 2 1 1 0 0 0 0 -0 -1 -1 -2 -2 -2 -2 -3 -3 -3 -4 -4 -4 -4 -5 -5 -7 -7 -7 -7 -8 -9 -10 -11 -12 -12 -12 -12 -13
5 5 4 4 3 3 2 1 1 -0 -0 -1 -1 -2 -3 -2 -2 -2 -2 -2 -3 -3 -4 -4 -4 -5 -5 -6 -7 -7 -8 -9 -11 -12 -11 -11 -12 -12 -13 -13 -13 -13 -13
5 4 4 3 2 2 1 1 0 -0 -1 -1 -1 -2 -2 -2 -3 -4 -3 -4 -4 -4 -5 -5 -6 -6 -7 -7 -8 -9 -11 -11 -12 -12 -13 -12 -13 -12 -13 -13 -13 -13 -14

GFSSE_700_temp_039.txt.gz
Temp
8 7 7 7 8 8 7 7 8 7 7 7 7 7 7 7 7 6 6 6 6 6 6 6 6 6 6 6 6 6 6 6 6 6 6 5 5 4 5 5 5 5 5
8 7 7 7 8 7 7 7 7 7 7 7 7 6 6 6 6 6 6 6 6 6 6 6 6 6 6 6 5 5 5 5 5 5 5 4 4 4 4 4 3 4 4
8 8 7 7 7 7 7 7 7 7 7 7 6 6 6 6 6 6 5 5 5 5 5 5 5 5 5 5 5 5 4 5 5 5 4 3 4 4 4 3 3 3 3
7 7 7 7 7 7 6 6 6 6 7 6 6 6 6 6 5 5 5 5 5 5 5 5 5 4 4 4 4 4 4 4 4 4 4 4 3 3 3 3 3 3 3
6 6 6 6 6 6 6 6 6 6 6 6 6 5 5 5 5 5 5 5 5 5 4 4 4 4 4 3 3 3 3 3 3 3 2 3 2 3 3 3 3 3 3
6 6 6 6 6 5 5 6 6 6 6 6 5 5 5 5 5 5 4 4 4 4 4 4 3 3 3 2 2 2 2 1 1 2 2 2 2 2 2 3 3 3 3
4 5 5 5 4 4 4 6 6 6 6 5 5 5 5 5 4 4 4 4 4 3 3 3 3 3 2 2 2 2 1 1 1 2 2 2 2 2 2 2 2 2 2
4 3 4 3 2 1 4 5 6 6 5 5 4 4 4 4 4 4 4 4 3 3 3 3 2 2 2 2 2 2 1 1 1 1 1 1 1 1 1 2 2 2 2
4 3 3 2 2 3 5 5 6 5 5 5 4 4 4 4 4 3 3 3 3 3 3 2 2 2 2 2 1 1 1 0 1 1 1 1 1 1 1 1 2 2 2
3 2 2 1 3 3 4 5 5 5 5 4 4 4 4 4 4 3 3 3 3 3 3 2 2 2 1 2 2 2 1 1 1 1 1 1 1 1 1 1 1 2 2
3 2 2 2 2 4 4 5 5 5 5 4 4 4 4 4 4 4 3 3 3 2 2 1 2 1 1 1 2 2 1 1 1 1 1 2 2 2 2 2 2 2 2
2 2 3 2 3 4 5 5 4 5 4 4 4 4 4 4 3 3 3 3 3 2 2 2 1 1 1 1 1 2 1 1 1 1 1 2 2 2 2 2 2 2 2
3 3 3 3 4 5 5 5 5 5 5 4 4 4 4 4 4 3 2 2 2 1 1 1 1 1 1 1 1 1 1 2 1 1 2 2 2 2 2 2 2 2 2
2 3 3 4 4 4 4 5 5 5 4 4 3 3 4 3 3 3 3 3 2 0 0 0 1 0 0 1 0 1 1 1 1 0 1 1 2 2 2 2 2 2 2
3 3 3 4 4 4 5 5 5 4 4 4 3 3 3 3 3 3 2 2 1 -0 1 0 0 0 0 1 1 0 0 1 0 0 1 1 1 1 1 2 2 2 2
4 4 4 4 4 5 5 5 5 4 4 3 3 3 3 3 2 2 1 0 0 -0 0 0 0 1 1 1 0 -0 -0 0 0 0 0 0 0 1 1 1 2 2 2
4 4 5 5 5 5 4 4 4 4 4 3 3 3 2 2 1 1 1 1 1 1 0 1 1 1 0 0 0 1 1 0 0 -0 -0 -0 0 0 1 1 2 1 1
5 5 5 5 4 4 3 3 3 3 3 2 2 2 2 2 1 1 1 1 1 1 1 1 1 1 1 1 1 0 -0 0 -0 -0 -0 -0 0 0 -0 0 0 1 1
5 5 5 5 4 3 4 3 3 3 2 2 1 1 1 1 1 1 1 1 1 1 1 1 1 1 0 0 0 -0 -0 -0 -0 -0 -0 -0 -1 -1 -1 -1 -0 -0 -1
5 5 5 5 4 4 3 3 2 2 2 2 2 3 2 1 1 1 1 1 1 1 0 0 0 0 0 0 -0 -0 -0 -1 -1 -1 -1 -2 -2 -3 -3 -3 -2 -2 -3
6 5 5 4 3 3 3 2 1 2 2 2 2 2 2 1 1 1 1 1 0 0 0 0 -0 -0 -1 -1 -1 -1 -1 -1 -2 -2 -3 -3 -4 -4 -5 -6 -6 -6 -6
6 5 5 4 3 3 2 2 2 2 2 2 2 1 1 1 1 0 -0 -0 -0 -0 -1 -1 -1 -1 -2 -2 -2 -2 -1 -1 -2 -2 -3 -5 -5 -6 -7 -8 -9 -10 -10
5 5 5 4 3 3 3 3 2 2 2 2 1 1 1 0 -0 -0 -0 -1 -1 -1 -1 -2 -2 -2 -2 -2 -3 -3 -3 -2 -3 -3 -4 -4 -6 -8 -9 -9 -9 -10 -11
5 5 4 4 4 3 3 4 3 2 1 1 1 1 -0 -1 -1 -1 -1 -1 -1 -2 -2 -2 -3 -3 -3 -3 -4 -4 -4 -5 -5 -4 -6 -7 -8 -10 -11 -11 -11 -11 -12
5 5 5 4 4 4 4 3 3 2 1 1 1 0 0 -0 -0 -1 -1 -2 -2 -2 -3 -3 -3 -3 -4 -4 -5 -5 -6 -6 -7 -8 -7 -8 -11 -12 -12 -12 -13 -13 -13
4 5 5 4 4 4 3 3 2 1 1 1 0 -0 -1 -1 -2 -2 -3 -2 -3 -4 -4 -4 -5 -5 -5 -6 -6 -7 -8 -8 -9 -10 -11 -11 -12 -12 -12 -13 -13 -13 -13

GFSSE_700_temp_042.txt.gz
Temp
9 8 8 7 7 7 7 7 8 7 7 7 7 7 7 7 7 6 6 6 6 6 6 6 5 5 6 6 6 6 6 6 6 5 4 5 5 5 5 4 4 4 4
8 7 8 7 7 8 7 7 7 7 7 7 7 7 7 6 6 6 6 6 6 5 5 5 5 5 5 6 6 5 5 5 5 5 5 5 4 5 5 5 4 4 4
8 8 7 7 7 8 8 7 7 7 7 7 7 7 7 6 6 6 6 5 5 5 5 5 5 5 5 5 5 5 5 5 5 5 4 4 5 5 4 4 4 4 4
7 7 7 7 7 7 7 7 7 7 7 7 6 6 6 6 6 6 5 5 5 5 5 5 5 5 4 5 4 3 3 3 4 4 4 4 4 4 3 3 3 3 3
6 6 6 7 7 7 7 6 6 6 7 6 6 6 6 6 5 5 5 5 5 5 5 5 4 4 4 4 4 3 3 3 3 3 3 3 3 3 3 3 3 3 3
6 6 5 5 6 6 6 6 6 6 6 6 6 6 5 5 5 5 5 5 5 5 5 4 4 3 3 3 3 2 2 2 2 2 2 2 2 2 3 2 3 3 3
6 5 4 3 4 5 5 5 5 6 6 6 6 5 5 5 5 5 5 4 4 4 4 4 4 3 3 2 2 2 2 2 2 2 2 2 2 2 2 2 2 2 2
5 4 3 2 3 3 4 4 5 5 6 6 5 5 5 5 5 5 5 4 4 4 4 3 3 3 3 2 2 2 2 2 2 2 1 2 2 2 2 2 2 2 2
4 3 4 3 1 2 2 2 4 5 5 6 5 5 5 5 5 5 5 4 4 3 3 3 3 3 2 2 2 1 1 1 2 2 2 2 2 1 2 2 2 2 2
3 4 3 2 1 2 2 3 4 5 5 5 5 5 5 5 5 4 4 4 3 3 3 3 2 2 2 2 2 2 2 1 1 1 1 2 2 2 2 2 2 2 2
1 1 2 2 2 1 3 4 4 4 4 5 5 4 4 4 4 4 4 4 3 3 3 2 1 2 2 2 2 1 1 1 1 1 1 1 1 2 2 2 2 2 2
2 2 1 1 2 2 3 4 4 4 5 4 4 4 4 4 4 3 3 3 3 2 1 1 1 1 2 2 2 2 2 2 2 1 2 2 2 2 2 2 2 2 2
1 3 2 1 3 3 4 4 4 4 4 4 3 3 3 3 3 3 4 3 2 1 1 1 1 1 1 2 2 2 2 2 1 1 1 1 2 1 2 2 2 2 2
3 2 2 3 3 3 4 4 4 4 4 4 3 3 4 3 3 3 3 3 2 1 1 1 1 1 2 1 1 1 1 1 1 1 1 1 1 1 1 2 2 2 2
4 2 3 3 3 4 4 4 4 4 4 3 4 4 3 3 3 3 2 2 2 1 1 1 1 1 1 1 1 0 0 -0 0 0 1 1 1 1 1 2 2 2 2
3 3 3 3 3 4 4 4 4 4 4 3 3 3 3 3 2 2 1 1 1 1 1 0 1 1 1 0 0 0 -0 0 0 0 0 0 0 0 0 1 1 2 2
4 4 4 4 4 4 4 4 4 3 3 3 3 2 2 2 2 2 1 0 1 1 1 1 1 1 0 0 0 1 1 1 1 0 0 -0 -1 -0 -0 0 1 1 1
4 4 5 4 4 4 4 4 3 3 3 3 2 2 1 2 2 1 1 1 1 1 1 1 0 0 0 1 1 1 0 -0 -0 -0 -0 -0 -0 -0 0 0 0 0 0
5 5 5 4 3 3 3 3 3 3 3 2 2 1 2 1 1 1 1 1 1 1 1 1 0 0 1 1 1 0 -0 -1 -1 -1 -1 -1 -1 -1 -1 -1 -1 -1 -1
5 5 5 4 4 4 4 4 4 3 3 2 2 3 3 3 2 2 1 1 1 1 0 0 0 0 0 0 0 -0 -0 -1 -1 -1 -1 -1 -2 -2 -3 -2 -2 -2 -2
5 5 5 4 4 4 4 4 3 2 2 2 3 3 3 2 2 2 1 1 0 0 0 0 -0 -0 -0 -0 -1 -1 -1 -1 -1 -2 -2 -2 -3 -3 -4 -4 -4 -5 -5
6 5 5 5 4 4 4 3 3 2 3 3 3 2 2 1 1 1 0 0 0 0 -0 -1 -1 -1 -1 -1 -1 -1 -2 -1 -1 -2 -2 -2 -3 -5 -5 -5 -6 -7 -8
6 5 5 4 4 3 3 3 3 3 3 2 2 1 1 1 0 0 -0 -0 -0 -1 -2 -2 -1 -2 -2 -2 -2 -3 -2 -2 -2 -3 -3 -3 -4 -5 -6 -7 -8 -9 -10
5 5 5 4 4 3 3 3 3 2 2 2 1 1 1 0 -0 -0 -0 -1 -1 -1 -2 -2 -2 -2 -2 -3 -3 -3 -4 -4 -4 -4 -4 -5 -7 -8 -9 -10 -11 -11 -11
5 4 4 4 4 4 3 3 3 2 2 2 1 1 0 -0 0 -0 -1 -2 -3 -3 -3 -3 -3 -2 -3 -4 -4 -5 -5 -5 -6 -6 -5 -6 -8 -9 -11 -12 -12 -12 -12
5 4 4 3 4 3 4 3 3 2 2 2 1 1 0 0 -0 -1 -2 -2 -3 -4 -3 -3 -3 -4 -5 -5 -6 -6 -6 -6 -7 -7 -7 -8 -8 -10 -11 -12 -13 -13 -13

GFSSE_700_temp_048.txt.gz
Temp
9 9 9 8 7 7 6 7 7 6 6 6 6 6 7 7 7 7 7 7 6 6 6 6 6 6 6 6 5 5 4 5 5 5 5 5 5 5 5 5 4 4 4
9 9 8 8 7 6 6 7 7 7 7 6 7 7 7 6 6 6 6 7 6 6 6 5 5 5 5 5 5 4 4 4 4 4 5 4 4 5 5 5 4 4 4
8 8 8 7 6 6 6 6 6 7 6 6 6 6 6 6 6 6 6 6 6 6 5 5 5 5 5 5 4 5 4 4 4 4 4 4 4 4 4 4 4 4 4
8 8 8 7 6 5 5 6 6 6 6 6 6 6 6 6 5 6 6 6 6 6 5 5 5 5 5 5 4 4 4 4 4 4 4 4 4 4 4 4 4 4 3
8 7 7 7 6 5 5 5 5 5 6 6 6 6 5 5 5 5 5 5 5 5 5 5 5 4 4 4 4 4 4 4 4 4 4 3 3 4 4 3 3 3 3
8 7 6 6 5 5 4 4 5 5 5 6 6 5 5 5 5 5 5 5 5 5 4 4 4 4 4 4 4 4 4 4 4 4 4 3 3 3 3 3 3 3 3
6 6 5 5 4 5 4 4 4 4 5 5 5 5 4 4 5 5 4 4 4 5 4 4 3 3 3 3 3 3 3 3 3 3 3 3 3 3 3 3 3 3 3
5 5 5 5 4 4 2 3 3 4 4 4 4 4 4 4 4 4 4 4 4 3 3 3 3 3 3 3 3 3 3 3 3 3 3 3 2 3 3 3 3 3 3
4 5 5 4 4 3 1 1 3 4 4 4 3 4 4 4 4 4 4 3 3 3 3 3 3 3 3 3 3 3 2 2 2 2 3 3 3 2 2 2 3 3 3
4 5 4 3 3 2 -1 2 3 3 3 3 3 3 3 3 4 3 3 3 3 3 3 3 2 3 2 2 2 2 2 2 2 2 2 2 3 3 2 2 2 3 3
4 4 3 3 2 -0 -1 1 1 2 3 2 3 3 3 3 3 4 4 3 3 3 3 2 2 2 2 2 2 2 2 2 2 2 2 2 2 2 2 2 2 2 2
4 3 3 3 2 0 -1 1 2 2 2 2 3 2 3 3 3 3 3 3 3 3 2 2 2 2 2 2 2 2 2 2 1 1 2 2 2 2 2 2 2 2 2
3 3 3 2 1 0 -1 2 2 3 2 2 2 2 3 3 2 3 3 2 2 2 2 2 2 1 1 2 2 2 1 1 1 1 1 1 1 1 1 2 2 2 2
2 2 1 1 1 1 1 2 2 2 2 2 2 2 2 2 3 2 2 2 2 2 1 2 1 1 1 1 1 1 1 1 1 1 1 1 1 1 1 1 1 2 2
1 1 2 2 2 3 4 3 1 2 2 2 2 2 2 2 2 2 2 1 1 1 1 1 1 1 1 0 0 0 0 0 0 0 1 1 1 0 0 1 1 1 1
2 2 2 1 2 2 3 3 3 2 2 2 2 2 2 2 1 1 1 1 1 1 0 0 0 1 0 -0 -0 -0 -0 -0 -0 0 0 1 0 0 0 0 0 1 1
2 2 2 2 3 4 3 3 3 2 2 2 2 2 2 2 1 1 1 1 1 -0 -0 -0 0 -0 -0 -1 -0 -0 -0 -0 0 0 0 1 0 0 0 -0 0 0 0
3 2 3 3 4 4 3 3 3 2 2 2 2 2 1 1 1 1 1 1 0 0 -0 -0 -0 -1 -1 -1 -0 -0 -0 -0 0 0 0 0 0 -0 -0 -0 -0 -0 -0
3 4 4 4 4 4 4 3 3 3 2 2 2 2 1 1 1 1 1 1 1 -0 -0 -1 -1 -1 -1 -1 -1 -0 -0 -0 0 -0 -0 -1 -1 -1 -1 -1 -1 -1 -1
4 4 4 4 4 4 3 3 3 3 3 2 2 2 2 1 1 1 1 1 0 -0 -0 -1 -2 -2 -1 -1 -1 -0 -0 -1 -1 -1 -1 -1 -1 -2 -2 -2 -2 -2 -2
4 4 4 4 4 4 3 3 3 2 2 2 2 2 2 1 1 1 1 1 -0 -0 -1 -1 -1 -1 -1 -1 -0 -0 -0 -1 -1 -1 -2 -2 -2 -2 -2 -3 -3 -3 -3
5 5 4 4 4 3 3 3 3 2 2 2 2 2 1 1 1 1 1 0 0 -0 -1 -1 -1 -1 -1 -1 -1 -1 -2 -2 -2 -2 -2 -2 -2 -3 -3 -3 -3 -4 -4
5 5 5 4 4 4 3 3 3 3 2 2 2 1 1 1 1 1 1 0 0 -0 -0 -1 -1 -1 -1 -2 -2 -3 -3 -3 -2 -2 -3 -3 -4 -4 -4 -5 -5 -5 -5
5 5 5 4 4 4 3 3 3 3 2 2 2 1 1 2 1 1 1 0 0 -0 -1 -1 -1 -2 -2 -2 -3 -4 -4 -4 -4 -3 -4 -5 -5 -6 -6 -6 -6 -7 -7
5 5 4 4 4 3 3 3 3 3 2 2 1 2 1 1 1 1 0 0 -0 -1 -1 -1 -2 -2 -3 -4 -4 -5 -4 -4 -5 -5 -4 -6 -7 -7 -7 -8 -8 -8 -9
5 5 5 4 4 3 3 3 2 2 2 1 1 1 1 1 1 0 0 -0 -1 -2 -3 -3 -3 -3 -3 -4 -5 -5 -5 -5 -5 -6 -7 -7 -8 -8 -8 -9 -9 -10 -11

GFSSE_700_temp_054.txt.gz
Temp
10 10 9 9 8 8 8 7 7 7 7 6 6 6 6 7 6 6 6 6 6 6 6 6 6 6 6 5 5 5 5 5 5 5 5 5 5 5 5 5 5 5 5
9 10 9 8 8 7 7 6 6 6 6 6 6 6 6 6 6 6 6 6 6 6 6 6 5 5 5 5 5 5 5 5 5 5 5 5 5 4 4 5 5 5 5
8 9 8 7 7 7 6 6 6 6 6 6 6 6 6 6 6 6 6 5 5 5 5 5 5 5 5 5 5 5 5 5 5 5 4 5 5 5 5 5 5 4 4
7 7 8 6 6 6 6 6 5 5 6 6 6 6 6 6 6 5 5 5 5 5 5 5 5 4 4 4 4 4 4 4 4 4 4 4 4 4 4 4 4 4 4
7 6 6 6 5 5 5 5 5 5 5 6 6 6 6 6 5 5 5 5 4 4 4 4 4 4 4 4 4 4 4 4 4 4 4 4 4 3 3 3 3 3 3
6 6 6 5 5 5 5 5 5 5 5 5 6 6 6 5 5 4 4 4 4 4 4 4 4 4 4 4 4 4 4 4 4 3 3 3 3 3 3 3 3 3 3
6 6 6 5 5 5 5 4 4 4 5 5 5 5 5 5 4 4 4 4 4 4 4 4 4 4 4 4 4 3 3 3 3 3 3 3 3 3 3 3 3 3 3
6 6 6 5 5 5 5 5 4 4 5 5 5 5 4 4 4 4 4 3 4 4 3 3 3 3 3 3 3 3 3 3 3 3 3 3 3 3 3 3 3 3 3
6 4 5 5 4 4 5 4 2 3 4 4 4 5 4 4 4 4 3 3 3 3 3 3 3 3 2 3 2 2 2 2 2 2 2 3 3 3 3 3 3 3 3
5 4 4 3 4 4 4 1 3 2 3 4 4 3 3 3 3 3 3 3 3 3 2 2 2 2 2 2 2 2 2 2 2 2 2 2 2 2 2 3 2 3 3
4 4 4 4 4 4 4 2 -1 2 2 2 3 3 3 3 3 3 3 2 2 2 2 2 2 2 2 1 1 1 1 1 1 1 2 2 2 2 2 2 2 2 3
4 3 3 4 4 3 3 2 -2 -0 0 1 2 3 2 3 3 2 2 2 2 1 2 2 2 1 1 1 1 1 1 1 1 1 1 1 1 1 1 2 2 2 2
3 3 3 3 3 3 2 2 1 -2 -1 -1 -0 1 2 2 2 2 2 2 1 1 1 1 1 1 1 1 1 1 1 1 1 1 1 0 1 1 1 1 1 1 1
3 2 2 3 1 1 1 1 0 -1 -1 -0 1 1 2 2 2 1 2 1 1 1 1 1 1 1 1 1 1 1 1 1 1 0 0 0 0 1 1 1 1 1 1
2 3 2 3 3 2 0 0 -0 -1 -0 1 0 1 1 1 1 1 1 1 1 1 1 0 0 0 0 0 0 1 0 0 -0 -0 0 0 0 0 0 0 1 0 0
1 2 2 1 0 -0 -0 -1 -2 -0 0 -0 0 1 1 1 1 1 1 1 1 1 0 0 -0 0 0 0 0 0 -0 -0 -0 -1 -1 -0 -0 -0 -0 -0 -0 0 0
1 1 0 -0 -1 -0 -0 -0 1 -1 -0 0 1 1 1 1 1 1 1 1 1 1 0 0 0 0 0 0 0 -0 -0 -1 -1 -1 -1 -1 -0 -0 -1 -1 -1 -1 -1
3 3 0 -0 -1 -1 1 0 -0 -0 -0 0 1 1 1 1 1 1 1 0 1 1 1 1 1 0 0 -0 -0 -0 -1 -1 -1 -1 -0 -0 -0 -0 -0 -1 -1 -1 -1
2 2 1 1 0 1 1 1 1 1 1 1 1 1 0 1 1 0 0 1 0 1 1 1 0 -0 -1 -1 -1 -1 -1 -1 -1 -1 -0 -0 -1 -1 -1 -1 -1 -1 -2
3 2 2 2 2 2 2 2 2 2 1 1 1 1 1 1 0 0 0 0 0 1 1 1 0 -0 -0 -1 -1 -1 -1 -1 -1 -1 -1 -1 -1 -1 -2 -2 -2 -1 -2
3 3 3 3 3 3 3 3 3 3 2 2 2 1 1 1 0 0 0 0 1 1 1 0 0 -0 -0 -1 -2 -2 -1 -1 -0 -1 -1 -1 -1 -2 -2 -2 -2 -2 -3
4 4 4 4 3 3 3 3 3 3 2 2 2 1 1 1 1 0 0 1 1 1 0 0 0 -0 -1 -2 -2 -2 -1 -2 -1 -1 -1 -2 -2 -3 -2 -2 -2 -3 -3
5 5 4 4 4 4 3 3 3 3 3 2 2 1 1 0 0 1 0 2 1 1 1 0 -0 -1 -2 -2 -2 -2 -2 -3 -3 -3 -2 -2 -3 -3 -3 -3 -3 -3 -3
5 4 4 4 4 4 3 3 3 2 2 2 1 1 0 1 1 1 0 1 1 1 0 -0 -1 -1 -2 -2 -3 -3 -3 -3 -4 -4 -4 -3 -3 -3 -4 -4 -4 -5 -6
5 5 4 4 4 4 4 3 3 3 2 2 2 1 1 1 1 1 1 1 1 -0 -0 -1 -2 -2 -2 -3 -2 -4 -4 -4 -3 -3 -4 -4 -5 -5 -5 -6 -6 -6 -6
5 5 5 5 4 4 4 3 3 2 2 2 2 1 1 1 1 1 1 0 -0 -1 -1 -2 -2 -2 -2 -2 -3 -3 -4 -4 -5 -5 -5 -5 -6 -6 -6 -6 -6 -7 -8

GFSSE_700_temp_057.txt.gz
Temp
10 10 10 10 9 9 8 8 8 7 7 6 6 7 7 7 7 6 6 6 6 6 6 6 6 6 6 6 5 5 5 5 5 6 6 6 6 6 6 5 5 5 5
10 10 10 10 9 9 8 8 7 7 6 6 6 6 6 7 6 6 6 6 6 6 6 5 5 5 5 5 5 5 5 5 5 5 5 5 5 5 5 5 5 5 5
10 9 9 9 8 8 7 7 6 6 6 6 6 6 6 6 6 6 6 5 5 5 5 5 5 5 5 5 5 5 5 5 5 5 5 5 4 4 4 4 4 4 4
9 9 9 9 7 7 6 6 6 6 5 5 6 6 6 6 6 5 5 5 5 5 5 5 5 5 5 4 5 4 4 4 4 5 4 4 4 5 4 4 4 4 4
9 9 9 9 7 6 6 6 6 5 5 5 6 6 5 5 5 5 5 5 4 4 4 4 4 4 4 4 4 4 4 4 4 4 4 4 4 4 4 4 4 4 4
7 8 8 8 6 6 6 6 5 5 5 5 6 6 5 5 5 5 4 4 4 4 4 4 4 4 4 4 4 4 4 4 4 4 3 4 4 4 4 3 3 3 3
6 7 7 7 6 5 5 5 4 4 5 5 6 5 5 5 4 4 4 4 4 3 3 3 4 3 3 3 3 3 3 3 3 3 3 4 4 4 4 3 3 3 3
6 6 6 6 6 5 4 4 4 4 4 5 5 5 5 4 4 4 4 4 4 3 3 3 3 3 3 3 3 3 3 3 3 3 3 3 3 3 3 3 3 3 3
6 4 4 5 5 5 5 4 3 4 4 5 5 4 4 4 3 3 4 3 3 3 3 3 2 3 3 2 3 3 2 2 2 2 2 2 2 3 3 3 3 3 3
5 5 3 4 4 4 5 4 2 1 3 3 4 4 3 3 3 3 3 3 3 3 2 2 2 2 2 2 2 2 2 2 1 2 2 2 2 2 2 2 3 2 3
6 6 5 4 4 2 3 4 3 -1 2 2 3 2 2 2 3 3 3 3 3 2 2 2 2 2 2 2 2 2 2 2 2 2 2 2 2 2 2 2 2 2 2
4 4 4 4 4 4 3 3 2 -0 -0 1 1 2 1 2 2 2 2 2 2 2 2 2 2 2 2 2 1 1 1 1 2 1 1 2 2 2 2 2 2 2 2
3 3 4 3 3 3 4 2 1 1 -1 0 0 0 -1 0 2 2 2 2 2 2 2 1 1 1 1 1 1 1 1 1 1 1 1 1 1 1 1 1 2 1 1
3 3 3 2 3 3 3 1 1 -2 -3 -1 -2 -1 -1 1 1 1 1 1 1 1 1 1 1 1 1 1 1 1 1 1 1 1 1 1 1 1 1 1 1 1 1
2 3 3 3 3 3 2 1 1 -2 -3 -2 -1 -1 0 1 1 1 1 1 1 1 1 1 1 0 0 1 1 1 1 1 1 1 1 0 0 1 1 1 1 0 0
2 2 2 2 1 0 0 -0 -0 -1 -1 -2 -1 -0 -0 0 0 1 1 1 1 1 1 0 1 0 0 0 0 1 0 0 -0 -0 -0 0 0 0 0 0 1 1 0
1 1 1 0 0 -0 -0 -1 -1 -1 -2 -1 -1 -0 -0 0 0 0 1 1 0 0 0 1 1 1 1 1 0 0 -0 -1 -1 -1 -1 -0 0 0 0 -0 0 -0 -0
2 1 -0 -0 -1 -1 -1 -1 -1 -1 -1 -1 0 0 -0 -0 0 0 1 0 0 0 1 1 1 1 1 0 -0 -0 -1 -1 -1 -1 -1 -1 -1 -1 -0 -0 -0 -0 -1
4 2 2 1 0 -0 -1 -0 -0 -1 -1 0 1 0 -0 0 1 0 0 0 0 0 1 1 1 1 0 -0 -0 -1 -1 -1 -1 -1 -1 -1 -1 -1 -1 -0 -1 -1 -1
3 2 2 2 1 0 0 0 0 0 1 1 1 0 -0 -0 1 0 0 0 0 0 1 1 0 1 0 -0 -1 -1 -1 -1 -1 -1 -1 -1 -0 -1 -1 -2 -1 -1 -1
3 3 3 2 2 2 1 2 2 2 2 2 1 1 1 1 1 1 0 0 0 0 0 1 1 1 0 -0 -1 -1 -1 -0 -0 -0 -1 -1 -1 -1 -1 -2 -2 -2 -2
4 4 3 3 3 3 2 2 2 2 2 2 1 1 1 1 1 0 0 0 0 0 0 1 1 0 -0 -0 -1 -2 -2 -3 -3 -2 -1 -1 -1 -2 -2 -2 -2 -2 -2
4 4 4 3 3 3 3 2 3 2 2 2 2 2 2 0 1 0 0 0 0 0 1 1 0 -0 -1 -1 -1 -2 -3 -3 -3 -4 -3 -2 -2 -2 -2 -3 -3 -3 -3
5 4 4 4 4 4 3 2 3 3 3 2 2 2 1 1 0 0 0 0 -0 0 1 0 -0 -1 -1 -2 -1 -2 -3 -3 -3 -3 -4 -4 -4 -3 -3 -3 -3 -4 -4
5 5 5 4 4 4 4 4 3 3 3 2 2 2 2 1 1 1 1 0 1 0 -0 -0 -1 -1 -2 -2 -2 -2 -3 -3 -3 -3 -3 -3 -5 -5 -6 -5 -4 -5 -6
5 5 5 4 4 4 4 4 3 3 3 2 2 2 2 1 1 1 1 1 1 -0 0 -0 -1 -1 -2 -2 -2 -3 -3 -4 -4 -5 -5 -5 -5 -5 -5 -6 -6 -6 -6

GFSSE_700_temp_060.txt.gz
Temp
9 10 11 10 11 10 9 9 9 8 8 8 7 7 7 7 7 7 7 7 7 6 6 6 6 6 6 6 6 6 6 6 6 6 6 6 6 6 6 6 6 6 6
7 9 10 10 9 9 9 8 8 8 7 7 7 7 7 7 7 6 6 6 6 6 6 6 6 6 5 5 6 6 6 6 6 5 5 5 5 5 5 5 5 5 5
5 6 9 9 9 8 8 8 7 7 6 6 7 7 7 6 6 6 6 6 6 5 5 5 5 5 5 5 5 5 5 5 5 5 5 5 5 5 5 5 5 5 5
8 5 8 8 9 8 8 7 7 6 6 6 6 6 6 6 6 6 6 5 5 5 5 5 5 4 4 4 5 5 5 5 5 6 5 5 5 5 5 5 5 5 4
9 8 8 9 7 7 7 7 6 6 6 6 6 6 6 6 5 5 5 5 5 4 4 4 4 4 4 4 4 4 4 4 4 4 4 4 4 4 4 4 4 4 4
7 8 7 7 6 6 6 6 5 5 5 5 6 6 6 5 5 5 5 4 4 4 4 4 4 4 4 4 4 4 4 4 4 4 4 4 4 4 4 4 4 4 4
6 7 6 6 6 6 6 5 5 5 4 5 5 5 5 5 5 4 4 4 4 4 4 4 4 4 3 3 3 3 3 4 4 3 3 4 4 4 4 4 4 4 3
6 5 5 5 5 5 5 4 4 4 4 5 5 5 5 4 4 4 4 4 3 3 3 3 3 3 3 3 3 3 2 3 4 3 3 3 4 3 4 4 4 4 4
6 6 5 5 5 5 4 3 3 4 4 4 4 4 4 4 4 4 3 3 3 3 3 3 3 3 3 2 2 2 2 3 3 3 3 3 3 3 4 4 4 4 4
6 5 5 4 2 3 2 2 2 3 3 4 4 3 3 3 3 3 3 3 3 3 3 3 3 3 3 2 2 2 2 2 3 3 2 3 3 3 4 4 3 3 3
5 5 5 5 6 4 4 1 1 -0 -0 2 2 2 2 2 2 2 3 3 2 3 3 3 3 2 2 2 2 2 2 2 2 2 2 3 3 3 3 3 3 3 3
5 5 5 4 4 4 3 3 2 2 1 -0 1 1 1 2 2 2 2 2 2 2 2 2 2 2 2 2 2 1 2 1 2 2 2 2 2 2 2 2 2 2 2
5 4 3 4 3 3 3 3 2 1 0 -0 -0 0 1 1 1 1 2 2 2 2 2 2 2 1 2 2 2 1 1 1 2 1 1 1 2 2 2 2 2 2 2
5 3 2 4 3 3 2 3 2 1 -1 -1 -1 -1 -1 -1 -1 -0 1 1 1 1 1 1 2 2 1 1 1 1 1 1 1 1 1 1 2 2 2 2 1 1 1
2 1 2 2 3 2 3 2 2 0 -2 -3 -3 -1 -2 -0 0 -0 1 1 1 1 1 1 1 1 1 1 0 1 0 0 -0 1 1 1 1 1 1 1 1 1 1
3 2 2 2 2 2 2 1 0 -0 -0 -2 -3 -2 -2 -0 -0 0 1 0 1 1 1 1 1 1 1 0 1 0 0 0 0 1 1 0 0 0 0 1 1 0 0
3 2 2 2 2 2 1 -1 -1 -1 -1 -3 -2 -2 -2 -1 -0 1 1 1 1 1 1 1 1 1 1 1 0 1 0 -0 0 -0 0 1 0 0 0 0 0 0 0
3 2 1 1 1 0 -0 -0 -0 -2 -2 -2 -1 -1 0 0 0 0 1 1 0 0 1 1 1 0 1 1 1 1 0 0 -0 -0 -1 -1 -0 0 0 0 0 0 0
4 3 2 1 -0 0 0 0 0 -1 -1 -0 -0 -0 -0 -0 0 1 0 -0 -0 0 1 1 0 0 0 0 1 0 -0 -0 -0 -0 -0 -1 -1 -1 -0 -0 -1 -1 -1
4 3 3 2 2 2 0 1 -0 -1 -1 -1 -0 1 1 1 0 -0 0 -0 0 0 0 0 0 0 0 0 0 0 0 -0 -1 -1 -0 -0 -1 -1 -1 -1 -1 -0 -0
4 3 3 2 2 2 1 1 1 1 1 1 1 0 1 1 0 -0 -0 0 0 0 0 0 -0 0 -0 -0 0 -1 -1 -1 -0 -0 -1 -1 -1 -1 -1 -1 -1 -1 -1
4 3 3 2 2 2 2 1 1 1 1 1 1 2 2 1 1 1 1 0 0 1 0 0 -1 -1 -1 -0 -0 -1 -1 -2 -2 -2 -2 -3 -2 -2 -2 -2 -2 -2 -2
4 4 4 4 3 3 3 2 1 1 1 2 2 2 2 2 1 1 1 1 0 0 0 0 -0 -1 -1 -1 -1 -1 -2 -2 -2 -3 -3 -4 -4 -3 -3 -2 -3 -2 -3
5 5 5 4 4 4 4 3 2 3 3 3 2 2 2 2 2 1 1 1 0 1 0 0 -0 -1 -1 -1 -1 -1 -1 -2 -3 -3 -4 -4 -4 -5 -4 -4 -3 -3 -3
5 5 5 4 5 4 3 4 2 2 3 3 3 2 3 2 1 1 1 1 1 0 0 0 -0 -1 -0 -1 -1 -2 -2 -2 -2 -3 -4 -4 -4 -4 -5 -5 -5 -5 -4
5 5 5 5 5 4 4 4 3 2 2 2 3 2 2 1 1 1 1 1 1 1 0 -0 -0 -1 -1 -1 -1 -2 -2 -2 -3 -3 -4 -4 -4 -5 -6 -6 -6 -5 -5

GFSSE_700_temp_063.txt.gz
Temp
9 7 6 7 7 8 9 9 9 9 8 8 8 8 8 8 7 7 7 7 7 7 7 6 6 6 6 6 6 6 7 7 7 7 7 7 7 6 6 6 6 6 6
8 8 7 6 6 7 8 8 8 8 8 8 7 8 8 7 7 7 7 7 7 6 6 6 6 5 6 6 6 7 7 7 7 7 7 6 6 6 6 6 6 6 6
8 8 8 6 6 6 7 7 7 7 7 7 7 7 7 7 7 6 6 6 6 6 6 6 6 5 6 6 6 6 6 6 6 6 6 6 6 6 5 5 5 5 5
8 8 8 7 6 6 6 6 6 6 6 6 7 7 7 7 7 6 6 6 6 6 5 5 5 5 5 5 5 6 6 6 5 5 5 5 5 5 5 5 5 5 5
7 8 9 6 6 6 6 6 6 6 6 6 6 6 7 6 6 6 6 5 5 5 5 5 5 5 5 5 5 6 5 6 5 5 5 5 5 5 5 5 5 5 5
7 7 7 6 7 6 6 6 6 6 6 6 6 6 6 6 6 5 5 5 5 4 4 4 4 4 4 4 5 5 3 4 4 4 4 5 5 5 5 5 5 5 5
7 7 6 6 7 6 6 5 6 5 4 5 5 6 6 5 5 5 5 4 4 4 4 4 4 4 4 4 4 4 4 4 4 4 4 4 4 5 5 5 4 4 4
6 6 5 5 5 5 5 5 5 4 4 4 5 5 5 5 5 4 4 4 4 4 4 4 4 4 3 3 3 4 4 3 4 4 4 4 4 4 4 4 4 4 4
6 5 4 5 5 6 6 5 5 3 3 4 4 5 5 4 4 4 4 3 3 3 3 3 3 3 3 3 3 3 4 3 3 3 4 3 3 3 3 4 4 4 4
6 6 5 4 4 3 0 4 1 3 2 3 4 4 3 3 3 3 3 3 3 3 3 3 3 3 3 3 3 3 3 3 3 3 3 3 3 3 3 3 3 4 4
6 5 5 5 4 3 4 2 2 2 2 2 3 2 3 2 3 3 2 2 3 2 3 2 2 3 3 3 2 2 3 2 2 3 3 2 3 3 3 3 3 3 3
5 6 6 5 5 3 4 4 3 1 1 1 2 1 2 2 2 2 2 2 2 2 2 2 2 2 2 2 2 2 2 2 2 2 2 2 2 2 2 2 2 3 3
6 6 5 5 5 4 3 4 4 4 3 2 0 -0 -1 1 1 1 2 1 2 1 2 2 2 2 1 2 1 2 2 1 1 2 2 2 2 2 2 2 2 2 3
6 6 6 4 3 3 3 3 3 2 1 -0 0 1 0 0 0 1 1 2 2 1 1 1 2 1 1 1 1 1 1 1 1 1 1 1 1 1 2 2 2 2 2
4 3 2 3 3 3 3 3 2 2 0 -0 1 0 -1 -1 -1 -0 1 2 1 1 1 1 1 2 1 1 1 1 1 1 1 1 1 1 1 2 2 1 1 1 1
4 2 2 2 2 3 3 3 2 2 1 -0 -0 -1 -2 -1 -1 1 1 1 1 0 1 1 1 1 1 1 1 0 0 0 1 1 1 1 1 1 1 1 1 1 1
4 2 2 2 2 2 2 2 1 1 1 -0 -0 -2 -2 -2 -1 0 1 1 1 0 1 1 1 1 1 0 1 0 -0 -0 0 1 1 1 0 1 1 0 1 0 0
3 1 2 2 2 2 2 1 1 0 0 -0 -1 -2 -2 -1 -0 1 0 1 1 1 1 1 1 1 1 1 0 0 -0 0 -0 0 0 0 0 1 1 0 0 -0 -0
5 2 1 1 1 1 2 -1 -1 -0 0 -1 -2 -1 -1 -0 1 1 0 0 1 1 0 0 0 1 1 1 0 1 1 0 0 0 -0 -0 0 0 -0 -0 -0 -1 -1
5 5 4 0 0 1 1 -0 -0 -0 0 -1 -0 -0 0 0 1 1 0 0 0 1 0 -0 0 0 -0 -0 -0 1 0 0 0 0 0 -0 -0 -0 -1 -1 -1 -1 -1
5 5 4 5 4 3 4 2 2 2 1 1 0 1 1 1 1 1 0 1 0 0 0 -0 0 -0 -1 -1 -1 -1 0 0 0 -0 -0 -0 -0 -0 -1 -1 -2 -2 -1
5 5 5 4 4 3 2 2 2 2 2 1 1 1 1 2 2 1 -0 0 1 1 1 1 0 0 -1 -1 -1 -1 -2 -1 -1 -1 -1 -1 -2 -1 -1 -2 -2 -2 -2
5 5 5 5 4 3 2 2 1 1 1 1 2 2 2 2 1 1 0 -0 0 0 0 0 0 -0 -0 -1 -1 -1 -1 -1 -2 -2 -2 -2 -3 -3 -3 -3 -3 -3 -3
5 5 4 4 4 3 3 3 2 2 2 3 2 2 2 2 2 1 1 1 1 1 1 1 1 0 0 -1 -1 -1 -1 -2 -2 -2 -2 -3 -3 -3 -4 -3 -3 -3 -3
6 5 5 5 4 4 4 4 4 3 3 2 2 2 2 2 2 1 1 1 1 1 0 0 0 0 -0 -0 -1 -1 -1 -1 -2 -2 -3 -3 -4 -4 -4 -4 -5 -5 -5
6 5 5 5 5 5 4 5 4 4 3 3 3 3 3 2 1 1 1 1 1 1 0 0 0 -0 0 -0 -1 -1 -1 -2 -2 -3 -3 -3 -4 -4 -5 -4 -4 -5 -6

GFSSE_700_temp_066.txt.gz
Temp
9 8 8 7 7 5 5 6 7 7 8 8 8 9 9 8 8 7 7 7 7 7 7 7 7 7 7 7 7 7 7 7 7 7 7 6 7 7 7 6 6 6 6
7 7 8 6 6 5 5 5 6 6 7 7 8 8 9 8 7 7 7 7 6 7 7 7 7 7 7 7 7 7 7 6 6 6 6 6 7 7 7 6 6 6 6
8 7 6 6 6 5 5 5 5 5 6 7 8 8 8 8 7 7 6 6 6 7 6 6 6 6 6 6 6 6 6 6 6 6 6 6 6 6 6 6 6 6 6
7 7 7 7 5 5 3 5 5 5 6 6 7 8 8 8 7 7 6 6 6 6 6 5 5 6 6 6 6 5 6 6 6 6 6 5 5 5 5 6 6 5 5
6 6 6 6 5 5 6 5 4 5 5 6 7 7 7 7 7 7 6 6 6 5 5 5 5 5 6 6 5 6 5 5 5 5 5 5 5 5 5 5 5 5 5
8 8 7 7 6 5 4 3 4 4 4 6 6 6 6 6 6 6 6 6 5 5 5 5 5 5 6 5 5 6 5 5 5 5 5 5 5 5 5 5 5 5 5
7 6 6 6 6 6 6 5 4 4 4 5 5 6 6 6 6 6 5 5 5 4 4 4 4 5 5 4 4 4 4 5 5 4 4 4 4 5 5 5 5 5 5
6 6 6 6 5 3 5 4 5 4 4 4 5 5 5 5 5 5 5 5 4 4 4 4 4 4 5 4 4 4 4 4 4 4 4 4 4 4 4 4 4 4 4
6 6 4 5 3 2 1 5 5 4 3 4 4 4 4 5 4 5 4 4 4 4 4 4 4 4 4 4 3 3 3 3 4 4 4 4 4 4 4 4 4 4 4
6 6 4 4 3 1 3 3 4 3 2 4 3 4 4 4 4 4 3 4 4 3 3 3 3 3 3 4 4 3 3 3 3 3 3 3 3 3 3 4 3 3 3
5 5 5 4 4 3 3 1 2 1 1 3 3 3 3 4 3 3 3 3 3 3 3 3 3 3 3 3 3 3 2 3 3 3 3 3 3 3 3 3 3 3 3
5 5 5 5 4 3 4 4 4 1 2 1 2 2 3 3 3 3 2 3 3 4 3 3 2 2 2 3 2 3 2 2 2 2 2 2 3 3 2 2 2 2 3
4 4 5 5 4 4 4 5 3 4 2 2 -0 1 2 2 2 2 2 3 3 3 3 2 2 1 1 2 2 2 2 2 2 2 2 2 2 2 2 2 2 2 2
6 6 5 4 3 3 3 3 2 3 3 3 2 -0 0 1 2 2 1 2 2 2 3 2 2 1 1 1 1 2 1 1 1 2 2 2 2 1 1 1 1 2 2
5 5 3 2 2 3 2 3 2 2 3 2 2 1 -1 -1 0 1 0 1 2 2 2 2 2 1 1 1 1 1 1 1 1 1 1 1 1 1 1 1 2 2 2
5 3 3 2 3 3 2 2 2 2 2 1 -0 -1 -1 -1 -0 0 0 1 2 1 2 2 1 1 1 1 0 1 1 1 1 1 1 1 1 1 1 1 1 1 1
6 2 2 2 3 2 2 2 1 1 2 -0 -1 -1 -1 -2 -1 -0 0 1 1 1 1 1 1 1 1 1 1 0 0 1 0 0 0 1 1 1 1 1 1 1 1
5 1 2 2 2 2 2 1 2 1 1 -1 -1 -1 -1 -2 -1 -0 1 1 1 1 1 1 1 1 1 1 0 0 0 0 0 -0 0 0 0 -0 -0 -0 0 0 0
6 2 1 2 1 2 1 1 1 1 0 -2 -1 -1 -1 -2 -1 0 1 1 1 1 1 1 1 1 1 1 0 0 -0 -1 -0 0 0 0 -0 -0 -0 -0 -0 -0 -0
5 4 1 1 1 1 1 -0 -0 -0 -0 -1 -1 -2 -1 -1 -0 0 0 1 1 1 1 1 1 1 1 1 1 0 0 -0 -0 0 0 -0 -0 -1 -0 -0 -0 -1 -1
5 5 5 0 1 1 2 0 -1 -1 -1 -1 -1 -1 -1 0 0 0 0 1 2 1 1 1 1 1 0 0 0 -0 -0 1 1 0 0 -0 -1 -1 -1 -1 -1 -1 -1
5 5 5 5 3 3 4 2 -1 -0 1 1 0 -0 0 1 1 1 1 1 1 1 1 1 0 -0 -0 -0 -0 -1 -0 -1 -0 -1 -1 -1 -2 -1 -1 -1 -1 -1 -1
5 5 5 5 4 4 3 3 3 2 2 2 1 1 1 1 1 1 1 1 1 1 1 0 0 -0 -0 -1 -0 -0 -1 -1 -1 -1 -1 -2 -2 -2 -2 -2 -1 -2 -2
5 5 5 5 5 4 4 4 3 4 3 3 2 1 1 1 1 1 1 1 1 1 1 1 0 0 0 0 -0 -1 -1 -1 -1 -1 -1 -2 -2 -2 -3 -4 -4 -4 -3
5 5 5 5 5 5 5 4 4 4 3 2 2 2 2 1 2 2 1 1 1 1 1 1 0 0 0 -0 -0 -1 -1 -1 -1 -1 -1 -2 -2 -3 -4 -4 -4 -5 -4
6 5 5 5 5 5 4 4 4 3 3 3 2 2 2 2 2 1 1 1 1 1 1 1 0 -0 -0 1 -0 -1 0 -1 -1 -1 -2 -2 -2 -3 -4 -4 -5 -4 -4

GFSSE_700_temp_069.txt.gz
Temp
8 8 8 7 4 6 6 6 4 5 5 6 6 7 8 8 8 8 8 8 8 7 7 8 8 8 8 7 7 7 6 6 6 7 7 6 6 6 6 6 6 6 6
9 9 8 8 6 6 6 5 5 5 5 6 7 7 8 8 8 8 8 8 8 7 7 7 7 7 7 7 6 6 6 6 6 6 6 6 6 6 6 6 6 6 6
8 8 7 7 6 5 6 6 5 5 5 6 7 7 7 7 8 8 8 8 8 7 7 7 7 7 6 6 6 6 6 6 6 6 6 6 6 6 6 6 6 6 6
7 7 7 7 6 6 5 6 4 4 4 5 5 6 6 7 7 7 7 7 7 7 7 7 6 6 5 5 6 6 6 6 6 6 6 5 5 5 6 6 5 5 5
7 6 6 6 5 5 5 5 6 5 3 5 5 6 6 6 7 7 6 6 6 7 7 6 6 6 6 6 6 6 6 6 5 5 5 5 5 6 5 5 5 5 5
7 7 6 6 4 5 5 3 4 4 4 5 6 5 5 5 6 6 6 6 6 6 6 6 6 5 5 6 5 5 5 5 5 5 5 5 5 5 5 5 5 5 5
7 6 5 5 5 4 3 4 3 3 3 4 6 5 5 5 5 6 6 6 6 6 6 6 5 5 5 5 5 5 5 5 5 5 5 5 5 5 5 5 5 5 5
6 5 6 5 5 4 3 4 3 3 3 3 5 4 4 5 5 5 5 5 5 5 5 5 5 5 5 4 5 4 4 4 4 4 4 5 4 5 4 5 4 4 4
5 5 4 4 3 3 3 4 3 3 3 2 4 4 4 4 5 5 5 5 5 5 5 5 5 4 4 4 4 4 3 4 4 4 4 4 4 4 4 4 4 4 4
5 5 4 4 4 4 2 3 3 4 2 1 3 3 4 4 4 4 4 4 4 4 5 5 4 3 3 3 3 3 3 3 3 3 3 4 4 3 3 3 3 3 4
5 4 4 4 4 4 2 3 2 2 2 2 2 3 3 3 3 3 4 4 4 4 4 4 4 4 3 3 2 3 3 3 3 3 3 3 3 3 3 3 3 3 3
5 5 5 4 4 3 3 3 2 2 2 1 2 2 3 3 3 3 3 3 3 3 3 4 4 4 3 3 3 3 2 2 2 3 3 2 3 2 2 2 3 2 2
5 5 5 4 4 4 4 4 3 2 2 1 -0 2 2 2 3 2 3 3 3 3 2 3 3 4 3 2 2 2 2 2 2 2 2 2 2 2 2 2 2 2 2
6 5 5 4 3 3 3 4 4 1 1 1 1 1 1 2 2 1 2 2 2 2 1 2 2 3 3 2 1 1 2 1 2 1 1 1 2 2 2 2 2 2 2
6 6 5 3 2 2 3 4 4 3 2 2 1 -1 -0 1 0 1 2 2 2 1 2 2 2 2 2 1 1 1 1 1 1 1 1 1 1 1 1 1 1 2 2
6 6 3 2 2 3 3 3 3 2 2 2 1 1 0 -2 -1 1 1 1 1 1 2 2 1 1 2 1 1 1 1 1 1 1 1 1 1 1 1 1 1 1 1
6 5 2 2 2 2 2 2 2 2 1 1 1 0 -1 -1 -1 0 1 1 1 1 2 2 1 1 2 1 1 1 1 1 1 1 1 1 1 1 1 1 0 1 1
6 4 2 1 2 2 1 1 2 1 2 1 -0 -1 -2 -2 -2 -0 0 0 1 1 1 1 1 1 1 1 1 1 1 1 1 1 1 1 1 1 1 1 1 0 0
6 4 3 2 2 1 1 2 1 1 -0 0 -1 -2 -2 -2 -2 -2 -1 -0 1 1 1 1 0 1 1 1 1 1 1 0 1 1 1 0 0 1 1 0 0 -0 -0
6 5 3 1 1 1 1 1 1 1 -1 -2 -2 -2 -2 -2 -2 -2 -2 0 1 1 1 1 1 1 1 1 1 0 0 1 1 0 0 0 0 0 -0 -0 -0 -0 -0
5 5 2 1 1 1 1 1 1 0 0 -2 -2 -2 -2 -2 -2 -2 -1 0 1 1 1 0 0 1 1 0 0 -0 -0 -0 0 -0 -0 0 -0 -1 -1 -1 -1 -0 -0
5 5 5 4 2 1 1 1 -0 -0 0 -2 -1 -3 -2 -2 -2 -1 -0 0 1 1 1 -0 1 0 -0 -0 -1 -1 -0 -0 -0 -1 -1 -1 -1 -1 -1 -1 -1 -1 -0
5 5 5 5 4 3 2 1 -1 -0 -0 -1 -1 -2 -2 -2 -2 -1 -0 1 0 0 1 1 1 -0 0 -0 -0 -0 -1 -0 -1 -1 -1 -1 -1 -1 -2 -2 -2 -0 -1
5 5 5 5 4 4 3 3 2 1 -1 -1 -1 -1 -1 -1 -1 -0 0 1 -1 -1 1 0 0 0 -0 -0 -0 -0 -1 -1 -0 -1 -1 -1 -2 -1 -2 -2 -2 -2 -3
5 5 5 5 5 4 4 4 3 3 2 1 2 2 1 0 0 1 1 0 -0 0 1 0 0 -0 -0 -0 -0 -1 -1 -0 -1 -0 -1 -1 -2 -2 -2 -2 -2 -3 -3
6 5 5 5 5 5 4 4 4 3 3 2 2 2 2 1 1 1 1 1 1 1 1 1 1 0 0 0 -0 -1 -1 0 -0 -1 -1 -1 -2 -3 -3 -3 -4 -4 -4

GFSSE_700_temp_072.txt.gz
Temp
8 7 8 8 7 7 7 6 7 6 6 7 7 5 5 6 6 7 7 8 8 8 8 8 8 7 7 7 7 7 7 7 7 6 6 6 6 6 6 6 6 6 6
8 8 8 7 7 7 7 7 6 6 7 6 7 6 5 6 6 7 7 8 8 8 7 7 8 8 7 7 7 7 7 6 6 6 6 6 6 6 6 6 6 6 6
8 8 8 7 6 6 6 6 6 7 6 7 5 6 6 6 6 6 7 7 7 7 7 7 7 7 8 7 7 7 6 6 6 6 6 6 6 6 6 6 6 5 5
7 7 6 6 5 5 5 5 5 6 6 5 5 5 6 6 5 6 6 7 7 7 6 7 7 7 7 7 7 7 6 6 6 6 6 6 6 6 6 6 5 5 5
7 7 7 5 4 4 4 4 4 5 4 5 5 5 6 5 5 5 6 6 6 6 6 7 7 7 6 6 6 6 6 6 6 6 6 6 6 5 5 5 5 5 5
6 6 6 5 4 4 4 4 4 4 5 5 5 5 6 5 5 5 6 6 6 6 6 6 6 6 6 6 6 6 6 6 5 5 5 5 5 5 5 5 5 5 5
6 6 6 5 5 3 4 4 4 4 4 5 4 4 4 5 4 4 5 5 6 6 6 6 5 5 5 5 5 5 5 5 5 5 5 5 5 5 5 5 5 5 5
5 6 6 6 5 5 5 4 3 3 4 4 3 4 4 4 4 4 5 5 5 5 5 5 5 5 5 5 5 5 5 5 5 5 5 5 4 4 4 5 4 4 4
4 5 6 5 5 4 5 4 3 2 4 3 3 3 4 4 4 4 4 4 5 5 5 5 4 5 5 5 4 4 4 4 4 4 4 4 4 4 4 4 4 4 4
4 5 5 5 5 6 4 3 3 3 3 3 3 1 4 4 4 3 3 4 4 5 4 4 4 4 4 4 4 3 3 3 3 3 3 3 4 4 4 4 4 4 4
5 5 5 5 5 4 4 4 3 3 3 3 2 2 2 3 3 2 3 4 4 4 4 4 4 3 4 4 3 3 3 2 2 3 3 3 3 3 3 3 3 3 3
5 5 5 5 5 4 4 4 3 2 2 3 3 0 1 3 1 3 2 3 3 3 3 3 3 3 2 3 4 3 3 2 2 2 2 2 3 3 3 3 3 3 3
4 4 4 4 4 4 4 3 2 2 2 1 1 -1 0 1 2 2 2 2 3 3 3 3 2 3 2 2 2 3 3 2 2 2 2 2 2 2 2 3 2 2 3
4 4 4 4 4 4 4 3 2 2 1 0 0 -1 0 1 1 2 2 2 2 2 2 1 1 2 2 2 2 2 2 2 2 2 2 2 2 2 2 2 3 2 2
5 5 5 4 4 3 4 4 3 2 1 1 0 -1 1 0 -0 0 1 0 2 1 1 1 1 2 1 1 2 2 2 2 1 2 1 1 2 2 2 2 2 2 2
5 5 4 3 3 1 3 3 4 1 1 1 -1 -1 -1 -1 -1 -0 -1 -1 0 1 1 1 2 2 2 2 1 1 2 2 2 1 1 1 1 1 1 1 1 1 1
5 5 3 1 1 2 2 3 2 2 1 1 0 -2 -1 -0 -1 -1 -1 -1 -0 1 1 1 1 2 1 1 1 1 1 1 1 1 1 1 1 1 1 1 1 1 1
5 5 4 1 1 2 2 2 1 1 1 1 -1 -3 -2 -2 -2 -1 -1 -1 -0 0 0 1 1 1 1 1 1 1 1 1 1 1 1 1 1 1 1 1 1 1 1
5 5 2 1 2 1 1 1 1 1 1 1 -0 -1 -1 -2 -1 -2 -2 -2 -2 -0 -0 1 1 1 1 1 1 1 1 1 1 1 1 1 1 0 0 0 0 0 0
5 4 3 2 2 1 1 1 0 1 1 0 0 -0 -1 -2 -2 -2 -2 -2 -2 -1 -0 0 1 0 1 0 1 0 0 0 0 0 0 0 -0 -0 -1 -1 -0 -0 -0
5 5 3 2 2 1 1 1 1 0 0 0 -0 -0 -1 -2 -2 -2 -2 -2 -2 -1 -0 0 1 0 0 -0 -0 -0 -0 -0 -0 -1 -1 -1 -1 -1 -1 -1 -2 -1 -1
5 5 4 3 2 1 1 1 1 1 0 0 -1 -2 -2 -2 -2 -2 -2 -2 -2 -1 -0 0 0 -0 -0 -0 -0 -0 -0 -0 -0 -1 -1 -1 -2 -1 -1 -1 -2 -2 -2
5 5 5 4 4 2 0 1 1 0 -0 -0 -1 -1 -1 -2 -2 -2 -2 -2 -2 -0 0 0 -0 -0 -1 -0 -0 -0 0 0 -0 -0 -0 -1 -1 -1 -2 -2 -2 -2 -2
5 5 5 5 5 5 4 1 -0 -0 -0 -0 -0 -1 -1 -1 -1 -2 -2 -2 -1 0 0 0 -0 -0 -1 0 -0 -0 -1 -1 -1 0 -0 -1 -1 -2 -1 -2 -2 -2 -2
5 5 5 5 5 5 5 4 3 1 0 0 -1 -1 -1 -2 -2 -2 -2 -2 -1 -0 -0 0 0 -1 -0 -0 -0 -0 -0 -1 -1 -1 -1 -1 -2 -1 -1 -2 -3 -2 -2
6 5 5 5 5 5 5 5 4 4 3 3 2 1 0 -1 -1 -1 -1 -1 -1 -1 -2 -1 -1 -1 -0 -0 -0 -1 -1 -1 -1 -1 -1 -1 -1 -1 -2 -2 -4 -3 -3

GFSSE_700_temp_075.txt.gz
Temp
8 8 7 8 8 7 7 7 7 7 7 7 6 7 8 7 6 5 6 6 6 5 8 7 7 7 7 7 7 7 7 7 7 7 7 7 6 6 6 7 7 7 7
8 7 8 8 8 8 7 6 6 6 7 6 7 7 7 8 5 6 6 6 6 6 7 7 6 7 7 7 7 7 7 7 7 7 6 6 6 6 6 6 6 6 6
8 8 7 7 7 6 6 5 6 6 7 6 5 6 6 6 6 6 6 6 6 6 6 6 6 7 7 7 7 7 6 6 6 6 6 6 6 6 6 6 5 5 5
7 7 7 7 6 6 6 4 5 5 6 6 6 5 6 6 6 6 6 6 6 6 6 6 6 7 7 6 6 6 6 6 6 6 6 6 6 5 5 5 5 5 5
7 7 6 6 5 4 6 5 5 5 5 6 6 6 6 6 6 6 6 6 6 6 6 6 6 6 6 6 6 5 5 6 6 6 5 5 5 5 5 5 5 5 5
6 6 6 6 5 4 6 5 5 4 4 4 4 5 6 7 6 6 6 5 5 5 5 6 6 6 6 5 5 5 6 6 6 5 5 5 5 5 5 5 5 5 5
6 5 6 6 6 5 4 5 5 5 4 3 3 5 6 6 6 6 5 5 5 4 5 5 5 5 5 5 5 5 6 5 5 5 5 5 4 5 5 5 5 5 5
6 5 4 5 5 4 5 5 4 3 3 3 3 3 5 6 6 6 5 5 4 4 4 5 5 5 5 5 5 5 5 5 4 4 4 5 5 5 5 5 4 5 4
5 5 4 4 4 3 4 3 3 3 3 3 2 3 4 5 5 6 5 4 4 4 4 4 4 4 4 5 5 4 4 4 4 4 4 4 4 4 4 4 4 4 4
5 5 4 4 4 4 4 4 3 3 3 3 3 3 3 4 4 5 5 4 3 3 3 3 4 4 4 4 4 4 4 4 4 4 4 4 4 4 4 4 4 4 4
5 5 4 4 3 3 4 4 4 3 3 2 3 3 3 5 4 4 4 3 3 3 3 3 3 4 4 4 4 4 4 4 4 3 3 3 3 3 3 3 3 4 4
5 4 4 4 4 4 4 3 3 3 2 2 3 3 2 4 3 4 4 3 2 2 2 3 3 3 3 3 3 3 3 3 3 3 3 3 3 3 3 3 3 3 3
5 5 5 4 4 4 4 4 3 2 2 3 2 3 2 2 1 3 3 3 2 2 2 2 2 2 3 3 2 3 2 3 3 3 3 3 3 3 3 3 3 3 3
4 4 4 4 4 4 3 3 3 3 3 3 2 2 -0 1 1 2 2 2 2 2 1 2 1 1 2 2 2 2 2 2 2 3 3 2 2 2 2 2 3 3 3
4 5 4 5 4 4 3 2 2 2 3 2 2 1 -0 0 1 1 1 1 1 1 1 2 1 1 1 2 2 2 2 2 2 2 2 2 2 2 2 2 2 2 2
5 5 5 5 4 4 3 1 2 1 1 2 1 1 -1 -1 -0 -1 -0 1 1 0 1 1 1 1 2 1 1 1 1 1 1 1 1 1 1 1 2 2 2 2 2
5 5 5 4 3 3 1 2 2 1 1 0 0 -0 -2 -2 -1 -1 -1 -1 -0 -0 0 -0 1 1 1 1 1 1 1 1 1 1 1 1 1 1 1 1 1 1 1
5 5 5 3 1 2 1 2 2 1 2 -0 -1 -2 -2 -2 -1 -2 -2 -2 -1 -2 -1 -1 1 1 1 1 1 1 1 1 1 1 1 1 1 1 1 1 1 1 1
5 5 4 1 1 1 2 2 2 1 1 0 -1 -2 -2 -2 -1 -1 -1 -1 -1 -1 -1 -0 -0 0 1 1 0 0 1 1 1 1 1 1 0 0 -0 0 -0 -0 -0
5 5 3 1 1 1 1 2 1 1 0 0 -1 -3 -3 -2 -1 -1 -2 -2 -1 -1 -1 -1 -1 -0 0 0 0 0 0 0 -0 -0 -0 -0 -1 -1 -1 -1 -1 -1 -1
5 5 3 1 2 1 1 1 1 1 1 -0 -0 -2 -3 -3 -2 -2 -2 -1 -2 -2 -2 -2 -1 -0 -0 -0 -0 -0 -0 -0 -0 -1 -0 -1 -1 -1 -1 -1 -1 -1 -2
5 5 3 2 2 2 2 1 1 0 0 -0 -0 -1 -2 -2 -2 -2 -1 -1 -2 -2 -2 -1 -1 -1 -0 -1 -1 -1 -0 -0 -0 -1 -1 -1 -1 -1 -1 -1 -1 -1 -2
5 5 4 3 3 3 3 1 1 1 0 0 -0 -0 -1 -1 -2 -1 -2 -2 -2 -1 -2 -2 -1 -1 -1 -1 -1 -1 -0 -0 -0 -1 -1 -1 -1 -2 -1 -1 -1 -1 -2
5 5 5 4 3 3 3 1 1 1 1 -0 -0 -0 -0 -1 -1 -1 -2 -1 -1 -2 -2 -2 -1 -1 -1 -1 -1 -1 -0 -0 -0 -0 -0 -0 -1 -1 -1 -1 -1 -1 -2
5 5 5 5 5 4 3 2 1 0 0 0 -0 -0 -1 -1 -1 -2 -2 -2 -1 -2 -2 -2 -1 -0 -1 -0 -1 -1 -0 -0 -0 -0 -0 -0 -1 -1 -1 -2 -1 -1 -2
6 6 5 5 5 5 5 4 3 1 -0 1 0 -0 -2 -1 -1 -2 -1 -2 -2 -2 -2 -2 -2 -1 -1 -1 -1 -1 -1 -1 -0 -1 -1 -1 -1 -1 -1 -1 -2 -2 -2

GFSSE_700_temp_078.txt.gz
Temp
9 8 8 8 7 8 8 7 7 7 6 6 6 6 6 6 8 7 7 7 7 7 7 7 7 7 7 7 7 6 7 7 7 7 6 7 7 7 7 6 6 6 6
8 8 7 7 8 8 7 7 6 6 6 6 6 6 6 6 7 7 6 7 7 6 6 7 7 7 7 7 6 6 6 6 6 6 6 6 6 6 6 6 6 6 6
8 8 8 8 8 7 7 6 6 6 6 6 6 6 6 6 6 6 6 6 6 6 6 6 6 6 7 6 6 6 6 6 5 6 6 6 6 6 6 5 5 6 6
8 7 7 7 7 7 6 6 5 6 6 6 6 6 6 5 6 6 6 6 6 5 5 6 6 6 6 6 6 6 6 5 5 5 6 5 6 5 5 5 5 5 5
7 7 7 6 6 6 6 5 5 5 4 5 5 5 5 5 6 6 6 6 5 5 5 6 6 6 6 6 6 6 5 5 5 5 5 5 5 5 5 5 5 5 5
6 7 6 5 5 6 5 5 4 4 4 4 4 5 4 5 5 5 6 6 6 5 5 5 5 5 6 6 6 6 5 5 5 5 4 5 5 5 5 5 5 5 5
6 6 6 5 5 5 4 5 3 4 4 4 4 4 4 5 4 5 6 6 5 5 5 5 5 5 5 5 5 5 5 5 4 4 5 5 5 5 5 4 5 5 5
6 5 5 5 4 5 4 3 4 4 4 3 3 3 3 4 5 4 5 6 5 5 5 4 5 5 5 5 5 5 5 5 5 4 5 4 4 4 4 4 4 5 5
6 5 5 4 5 4 4 5 4 3 4 4 3 2 3 3 4 3 4 5 5 5 4 4 4 5 5 5 5 4 4 5 5 4 5 4 4 4 4 4 4 4 4
6 5 4 4 3 3 3 3 3 4 3 3 3 2 3 3 3 2 2 4 5 5 4 4 4 4 4 4 4 4 4 4 4 4 4 4 4 4 4 4 4 4 4
5 5 4 4 3 3 3 3 3 3 3 2 3 2 2 2 2 1 2 3 4 4 3 3 3 3 4 4 3 3 4 4 4 4 4 4 4 4 4 4 3 4 4
4 5 5 4 4 4 3 3 3 3 3 3 3 2 2 2 0 1 1 3 4 3 3 3 3 3 3 3 3 3 3 3 3 3 3 3 3 3 3 3 3 3 3
5 5 5 5 4 4 4 3 3 3 2 2 3 3 2 2 1 0 2 3 3 3 2 2 3 3 3 2 3 3 3 3 3 3 3 2 2 3 3 3 3 3 3
5 5 5 5 4 4 4 4 3 2 3 3 2 3 2 1 1 1 2 2 2 3 2 2 2 2 2 2 2 2 3 2 2 2 2 2 2 2 2 2 2 2 3
4 4 5 5 5 4 4 4 4 2 2 3 2 2 0 -1 -0 1 2 2 2 2 2 2 1 2 2 2 2 2 2 1 2 1 2 2 2 2 2 2 2 2 2
5 5 5 5 5 5 5 4 3 2 4 2 2 2 1 -2 -2 -1 0 1 1 1 1 1 1 1 1 1 2 1 1 1 1 1 1 1 1 1 1 1 1 1 1
5 5 5 5 5 5 4 2 1 2 2 2 1 1 1 -1 -1 -2 -0 -0 1 1 1 1 1 1 1 2 1 1 1 1 1 1 1 1 1 1 1 1 1 1 1
5 5 6 6 5 3 2 2 2 2 2 1 1 0 0 -2 -3 -2 -1 -1 -1 -0 -0 -0 0 1 1 1 1 0 0 0 1 1 1 1 1 1 1 1 1 1 1
5 6 5 5 4 2 1 1 1 1 2 1 1 0 -1 -3 -2 -3 -2 -2 -2 -1 -2 -0 0 1 1 1 -0 -0 0 0 1 0 0 0 0 0 0 0 0 0 0
6 5 5 4 1 2 1 1 1 1 1 1 0 0 -0 -1 -2 -2 -2 -2 -1 -1 -0 -1 -1 0 1 -0 -0 0 0 0 0 -0 -0 0 -0 -0 -0 -0 -0 -0 -0
5 5 5 3 1 2 1 2 1 1 1 0 0 -1 -1 -2 -2 -2 -2 -1 -2 -1 -1 -1 -1 -0 -0 -0 -0 0 -0 -0 -0 -0 -0 -1 -0 -1 -1 -1 -1 -1 -1
6 6 6 4 3 2 2 2 1 1 1 1 -0 -1 -2 -2 -1 -2 -2 -1 -1 -1 -1 -1 -1 -1 -1 -1 -0 -1 -1 -0 -0 -0 -0 -0 -0 -1 -1 -1 -0 -0 -1
6 6 6 4 3 3 3 3 1 1 0 0 0 -0 -2 -2 -2 -2 -2 -2 -1 -1 -1 -1 -1 -1 -1 -1 -1 -1 -0 -0 -0 -0 -1 -0 -1 -0 -1 -1 -0 -1 -1
6 6 5 5 4 3 3 3 1 1 1 0 0 0 -0 -2 -2 -2 -1 -1 -1 -1 -1 -1 -2 -2 -2 -1 -1 -1 -1 -1 -0 -0 -0 -1 -1 -1 -1 -0 -1 -1 -1
6 6 6 5 5 4 3 2 1 1 1 1 0 -0 -0 -0 -1 -2 -2 -1 -2 -1 -1 -2 -2 -2 -2 -2 -1 -1 -1 -1 -1 -0 -0 -0 0 -1 -1 -1 -0 -1 -1
6 6 6 5 5 5 4 3 2 1 1 0 0 0 -0 -0 -0 -1 -1 -2 -1 -2 -2 -2 -1 -2 -2 -2 -1 -1 -1 -1 -1 -1 -1 -0 -0 -0 -1 -2 -1 -1 -1

GFSSE_700_temp_081.txt.gz
Temp
9 9 8 8 8 8 8 8 8 7 7 7 7 6 6 6 6 7 7 8 7 7 7 7 7 7 7 7 7 7 7 7 6 6 6 7 6 6 6 7 7 6 6
9 9 8 8 8 8 8 7 7 7 7 7 7 6 5 6 6 6 7 7 7 7 6 6 6 7 7 7 7 7 7 7 6 6 6 6 6 6 6 6 6 6 6
8 8 8 7 7 8 8 8 7 6 6 7 6 5 5 5 5 6 6 7 6 6 6 6 6 6 7 6 6 7 7 6 6 6 6 6 6 6 6 6 6 6 6
8 8 8 8 8 8 8 7 6 6 6 5 5 5 4 4 5 5 6 6 6 5 5 6 6 6 6 6 7 6 6 5 5 6 6 6 6 5 5 5 5 5 5
7 7 8 7 7 7 6 7 6 6 5 5 5 4 4 4 4 5 6 6 6 5 5 6 6 6 6 6 6 6 5 5 5 6 5 5 5 5 5 5 5 5 5
7 7 7 6 6 6 6 5 5 5 5 4 4 4 4 3 3 4 5 6 6 5 5 5 6 6 6 6 5 5 5 5 5 5 5 5 5 5 5 5 5 5 5
7 6 6 6 6 5 4 4 4 4 3 4 4 4 4 3 4 4 5 5 5 5 5 5 5 5 5 5 5 5 4 4 5 5 5 5 5 5 5 5 5 5 5
7 6 6 5 5 5 5 4 3 3 3 4 3 3 4 3 3 4 4 5 5 5 5 5 5 5 5 5 5 4 4 4 5 5 5 5 5 5 4 5 4 4 5
6 6 6 5 5 4 4 3 2 3 2 2 3 3 3 3 3 4 3 4 4 4 5 5 4 4 5 4 4 4 4 4 4 4 4 4 5 4 4 4 4 4 4
6 6 5 5 5 4 4 3 3 3 2 4 3 4 4 3 3 3 3 3 3 4 4 5 4 4 4 4 4 4 4 4 4 4 4 4 4 4 4 4 4 4 4
6 5 5 5 5 4 4 4 3 3 3 4 3 3 4 2 3 2 2 3 3 3 4 4 4 4 4 4 3 3 3 3 3 3 4 4 3 4 4 4 4 4 4
6 6 5 5 4 4 4 4 3 3 3 3 3 3 3 2 2 2 2 2 3 3 3 3 4 4 3 3 3 3 3 3 3 3 3 3 3 3 4 4 3 3 4
6 5 5 5 5 4 4 4 3 3 3 3 3 3 3 2 2 2 1 0 2 2 3 3 3 3 3 3 3 3 3 2 3 3 3 3 3 3 3 3 3 3 3
5 5 5 5 5 4 4 4 4 4 4 3 3 3 2 1 1 1 -0 1 2 2 2 2 3 3 2 2 2 3 3 2 2 3 2 2 3 2 2 2 3 3 3
4 4 5 5 5 4 4 4 4 4 4 3 3 3 3 3 1 2 1 -0 1 2 2 2 3 2 2 2 2 2 2 2 2 2 2 2 2 2 2 2 2 2 2
5 5 5 5 5 5 5 5 5 5 4 3 3 3 2 3 1 2 1 -0 1 1 1 2 2 2 2 2 2 2 1 1 1 2 2 2 2 2 1 1 2 2 2
6 5 5 5 5 6 6 6 5 5 4 4 3 5 3 2 1 1 1 -1 1 1 1 2 1 2 1 1 1 1 1 1 1 2 1 1 1 1 1 1 1 1 1
6 5 5 5 5 5 5 5 4 3 4 4 4 2 2 1 0 -0 0 0 -1 1 1 1 1 1 1 1 0 1 1 1 1 1 1 1 1 1 1 1 1 1 1
6 6 6 5 5 4 2 2 2 2 2 2 2 1 1 0 0 0 -1 -2 -1 0 0 0 0 1 1 0 0 0 0 0 0 0 0 0 1 0 0 1 1 1 1
6 6 6 5 4 2 2 1 1 1 2 1 2 1 0 0 0 -1 -2 -3 -2 -1 -1 -1 -2 -1 -1 -0 -0 0 -0 0 0 -0 -0 0 0 -0 0 1 0 1 1
6 6 6 5 4 1 2 2 1 2 1 1 2 1 0 -0 -2 -2 -2 -2 -3 -2 -1 -1 -1 -1 -1 -0 0 0 -0 -0 0 -0 -0 -0 -0 -0 -0 0 0 0 0
6 6 6 5 4 2 2 2 2 2 1 1 1 1 0 -0 -2 -3 -2 -2 -2 -2 -1 -2 -1 -1 -1 0 0 0 -0 -0 -0 -0 -0 -0 -0 -0 -0 -0 -0 -0 0
7 6 6 5 4 3 3 3 2 1 1 1 1 1 1 0 -1 -2 -2 -3 -3 -2 -2 -1 -1 -1 -1 -0 -0 -0 -0 -0 -0 -0 -1 -1 -0 -0 0 -0 -0 -0 -0
7 7 6 6 5 4 3 3 3 1 1 1 1 1 0 0 -1 -1 -2 -2 -2 -1 -1 -2 -2 -2 -1 -1 -1 -1 -1 -1 -0 -0 -0 -1 -0 -0 -1 -0 -0 -0 -0
7 7 6 6 6 4 3 2 2 1 1 1 1 0 1 0 -1 -1 -2 -2 -2 -1 -2 -2 -1 -1 -0 -1 -1 -1 -1 -1 -1 -1 -1 -1 -1 -0 -1 -1 -1 -1 -1
7 7 6 6 6 5 5 3 2 1 1 1 1 1 0 0 0 -1 -1 -1 -2 -1 -2 -2 -1 -1 -0 -0 -0 -1 -1 -1 -1 -1 -0 -0 -1 -1 -0 -0 -1 -1 -1

GFSSE_700_temp_084.txt.gz
Temp
9 9 9 9 9 8 8 8 8 8 8 7 7 7 7 7 7 7 8 7 8 8 7 8 7 7 7 7 7 7 7 6 7 7 7 7 7 6 6 6 6 6 7
9 9 9 9 8 8 8 8 8 8 7 6 6 6 5 6 6 6 7 7 7 7 7 7 7 7 7 7 7 7 6 7 6 7 7 7 6 6 6 6 6 7 6
8 9 9 8 8 8 8 8 8 7 6 6 6 5 5 5 5 6 6 7 7 7 7 7 7 7 6 6 7 6 6 6 7 7 6 6 6 6 6 6 6 6 6
8 8 9 8 8 8 8 7 7 7 7 6 5 5 4 5 5 5 6 6 6 6 6 7 6 6 6 6 6 6 6 6 6 6 6 6 6 6 6 6 6 6 6
8 8 8 8 7 7 7 7 6 7 7 5 6 4 4 4 4 5 5 5 6 5 6 6 6 6 6 6 6 5 6 6 6 6 6 6 6 6 5 5 5 5 5
7 7 7 7 7 7 6 6 6 5 5 5 5 4 4 4 4 4 4 5 5 5 5 6 6 5 6 5 5 5 5 6 5 6 6 6 5 5 5 5 5 5 5
7 7 7 6 7 6 6 6 6 6 4 4 4 4 4 3 3 4 4 4 4 5 5 5 6 5 5 5 5 5 5 5 6 5 5 5 5 5 5 5 5 5 5
7 7 6 6 6 6 6 6 5 5 4 2 2 4 4 3 3 3 3 4 4 5 5 5 5 5 5 5 4 5 5 5 5 5 5 5 5 5 5 5 5 5 5
7 6 6 6 6 6 5 5 4 4 3 3 2 2 3 4 3 3 3 4 4 4 5 5 5 4 5 4 4 4 4 4 5 4 4 4 4 4 5 5 5 5 4
6 6 6 6 6 6 5 5 4 4 4 3 2 3 4 4 3 2 3 3 4 4 4 4 4 4 4 4 4 4 3 4 4 4 4 4 4 4 4 4 4 4 4
6 6 6 6 5 5 5 5 3 3 3 3 2 3 3 2 3 2 2 3 3 4 4 4 4 3 4 4 3 3 3 3 4 4 4 4 4 4 4 4 4 3 4
7 6 6 6 6 6 5 4 4 4 3 3 3 3 3 3 2 1 2 3 3 3 3 4 3 3 4 4 3 3 3 3 4 3 3 3 4 4 4 3 3 3 4
6 6 5 5 5 5 5 5 4 4 4 4 3 3 2 3 2 2 2 1 2 2 3 3 3 3 4 3 3 3 3 3 3 3 3 3 3 3 3 3 3 3 3
6 5 5 5 5 5 5 5 4 4 4 4 4 3 3 3 3 2 1 2 1 2 2 3 3 3 3 3 3 2 2 4 3 3 3 3 3 3 3 3 3 3 3
6 6 5 5 5 5 5 5 5 4 4 4 4 3 3 3 2 2 2 1 1 1 2 2 2 3 2 2 3 2 1 4 3 3 2 2 2 2 2 2 2 2 2
7 7 6 6 5 5 5 5 4 4 3 3 4 4 3 3 2 2 1 1 1 0 2 2 2 2 2 2 2 2 2 3 2 2 2 2 2 2 2 2 2 2 2
6 7 6 6 6 6 6 6 5 4 4 4 4 3 3 3 2 3 2 1 -1 0 1 1 2 1 2 2 2 2 2 2 2 2 2 1 1 1 1 2 2 2 2
6 6 7 6 6 6 6 6 5 5 4 4 4 3 3 3 1 2 1 1 0 -1 0 1 1 1 1 1 1 1 1 1 2 1 1 1 1 1 1 1 1 1 2
7 6 7 6 6 6 6 5 5 4 4 4 3 3 3 2 2 1 1 0 1 -0 0 1 1 1 1 1 1 0 0 0 1 1 1 1 1 1 1 1 1 2 2
7 7 7 6 6 6 4 3 3 2 2 3 3 4 3 2 2 1 1 0 0 -1 1 1 1 0 0 0 -0 -1 -0 0 -0 -0 0 1 1 1 0 1 1 1 1
7 7 7 6 6 5 5 3 2 2 3 3 3 2 2 2 2 0 -0 0 -0 -2 -1 -0 -0 -1 -1 -1 -1 -1 -0 -0 -0 -0 -0 -0 0 -0 1 1 0 0 0
7 7 6 7 6 5 4 4 3 2 1 2 1 1 2 1 -0 0 -0 -1 -0 -1 -3 -3 -2 -1 -1 -0 -0 -0 -0 -0 -0 -0 -0 -0 -1 -1 -1 -0 0 0 0
7 7 6 7 6 5 5 4 4 3 2 2 2 2 1 1 1 0 -1 -1 -1 -2 -3 -3 -1 -1 0 -1 -1 -0 -0 0 -1 -1 -0 -1 -1 -1 -1 -1 -1 -0 0
7 7 6 7 6 5 5 4 4 4 3 2 2 1 1 1 2 1 -1 -2 -1 -3 -3 -2 -1 -1 -0 -1 -1 -1 -1 -1 -1 -1 -1 -0 -1 -1 -1 -1 -0 -0 -0
7 7 6 7 6 6 6 5 4 3 3 2 1 1 1 1 1 0 -0 -2 -2 -2 -2 -2 -1 -1 -1 -1 -2 -2 -1 -1 -1 -1 -1 -1 -1 -1 -0 -1 -1 -0 -0
7 7 7 6 6 6 6 6 5 4 3 2 1 1 0 0 1 1 0 -1 -2 -2 -2 -2 -2 -2 -1 -1 -1 -1 -1 -1 -1 -1 -1 -0 -0 -0 -1 -1 -1 -1 -1

GFSSE_700_temp_087.txt.gz
Temp
9 9 9 9 9 9 8 8 8 8 8 7 7 6 6 7 7 7 7 7 7 7 7 7 7 7 7 7 7 7 7 6 7 7 7 6 6 6 7 7 7 7 7
9 9 9 9 9 9 8 7 8 8 7 6 6 6 6 6 6 6 7 7 7 7 7 7 7 7 7 7 7 6 7 7 7 7 7 7 7 7 7 7 7 6 6
9 9 9 9 8 8 7 7 7 8 7 6 6 5 5 5 5 6 7 7 7 7 7 7 7 7 7 7 6 6 7 6 6 6 6 7 7 7 7 6 6 6 6
9 8 8 8 8 8 7 7 7 7 7 7 6 6 5 5 5 6 6 7 6 6 6 6 7 7 7 6 6 6 6 6 6 6 7 7 7 7 6 6 6 6 6
8 8 8 8 8 8 7 6 6 6 6 6 5 5 5 5 5 5 6 6 5 5 6 6 6 6 6 6 6 6 6 6 6 6 6 6 7 7 6 6 6 6 6
8 7 7 7 7 7 7 7 6 6 6 5 5 4 4 4 5 4 5 6 5 5 5 5 6 5 6 6 6 6 6 6 6 6 6 6 6 6 6 6 5 5 6
7 7 7 7 7 7 7 7 7 6 6 6 6 5 5 4 4 4 4 5 5 5 4 5 5 5 6 6 6 6 6 6 6 5 5 6 6 6 5 5 5 5 5
7 7 7 6 6 7 6 6 6 6 5 5 4 3 3 4 4 3 4 4 5 5 4 5 5 5 5 5 5 5 6 6 5 5 5 5 5 5 5 5 5 5 5
7 7 7 6 6 6 6 6 6 5 5 4 4 4 3 4 4 3 3 3 4 4 4 5 5 4 5 5 5 5 6 5 5 5 5 5 5 5 5 5 5 5 5
7 7 6 6 6 6 6 6 6 5 4 4 4 4 2 4 4 2 3 2 3 3 4 4 4 4 4 4 4 5 5 5 5 5 5 5 5 5 5 5 4 4 4
7 7 6 6 6 6 6 6 5 5 4 4 3 2 3 2 3 3 3 2 3 3 3 3 4 4 4 4 4 4 5 5 4 5 5 5 4 4 4 4 4 4 4
7 7 7 6 6 6 6 6 5 5 4 4 4 3 3 3 2 2 2 2 2 3 3 3 3 4 3 4 3 4 5 4 4 4 4 4 4 4 4 4 4 4 3
7 7 6 5 6 6 5 5 5 4 4 3 3 3 1 2 3 3 2 2 2 3 3 3 3 4 3 3 3 4 5 4 4 4 4 4 4 4 4 3 3 3 3
7 7 6 5 5 5 6 5 5 4 4 3 2 3 2 2 3 3 2 1 2 3 3 3 3 3 3 3 3 4 4 4 4 4 3 3 3 3 3 3 3 3 3
7 7 7 6 5 5 5 6 5 5 4 4 3 3 3 3 3 2 2 2 1 2 2 2 3 3 2 3 2 3 4 3 3 3 3 3 3 3 3 3 3 3 3
7 7 7 6 6 6 6 6 5 5 5 4 4 3 3 3 3 2 2 2 2 1 2 2 2 2 3 2 2 3 3 3 3 2 2 2 2 2 2 2 2 2 2
7 7 7 6 6 6 6 6 6 5 4 4 4 4 4 3 3 2 3 2 2 1 2 2 1 2 2 2 1 3 3 2 2 2 2 2 2 2 2 2 2 2 2
7 7 7 7 7 6 6 6 6 5 5 5 4 3 3 3 2 2 2 2 2 1 1 1 1 1 2 1 1 2 3 2 2 2 1 1 2 1 1 2 2 2 2
7 7 7 7 6 6 6 5 4 5 5 4 4 3 3 2 2 2 3 1 1 1 -0 0 1 1 2 1 1 1 2 2 1 1 1 1 1 1 1 1 1 1 1
7 7 7 6 6 6 6 5 3 3 3 3 4 3 3 3 2 1 2 1 1 1 -0 0 1 1 1 1 1 0 0 1 1 0 1 1 1 1 1 1 1 1 1
7 7 7 6 6 6 6 5 4 3 2 2 3 3 3 3 3 3 2 2 0 0 -1 -0 0 0 0 0 0 -0 -0 -0 0 2 1 0 0 0 0 1 0 0 0
7 7 7 7 6 6 6 5 4 4 3 4 4 4 4 2 2 2 2 1 1 0 -1 -1 -1 -0 0 -0 -0 -1 -1 -0 -0 0 1 1 1 0 0 -0 -0 -0 -0
7 7 7 7 6 6 6 5 5 5 4 3 3 3 2 2 2 2 1 0 -0 -0 -1 -1 -1 -0 -0 -1 -2 -0 0 0 0 0 -0 -0 -0 0 0 0 -0 -0 0
7 7 7 7 7 6 6 5 5 4 3 3 1 1 2 1 1 1 -0 -0 -0 -1 -1 -2 -1 -1 -2 -1 -1 0 -1 0 0 0 -0 -0 -1 -1 -1 -1 -1 -1 -0
7 7 7 7 7 6 6 6 5 4 3 2 1 2 1 1 0 0 -0 -0 -1 -1 -1 -1 -2 -3 -2 -2 -1 -1 -1 -1 -0 -1 -1 -1 -1 -1 -1 -1 -1 -1 -0
8 7 7 7 7 7 6 6 5 5 3 3 3 1 1 1 1 1 2 2 -1 -1 -1 -1 -2 -2 -2 -1 -2 -2 -2 -1 -1 -2 -1 -1 -1 -1 -1 -1 -0 -1 -1

GFSSE_700_temp_090.txt.gz
Temp
8 9 9 9 9 9 8 7 7 7 8 7 7 7 7 7 7 7 7 7 6 6 6 6 7 7 7 7 6 6 6 6 6 6 6 6 6 6 7 7 7 7 7
9 9 9 9 9 9 8 7 7 7 8 7 7 7 7 6 7 6 6 7 7 6 6 6 7 7 7 6 7 7 6 6 6 7 6 6 6 7 7 7 7 7 7
8 9 8 8 8 8 8 7 7 7 7 7 6 6 6 6 6 6 6 7 7 7 6 6 7 7 7 7 7 6 6 6 6 6 6 6 7 7 7 7 7 7 7
8 8 8 8 8 8 8 7 7 7 7 7 6 6 6 6 6 6 6 7 7 7 6 6 7 7 7 7 6 6 6 7 6 6 6 6 6 7 6 7 7 7 7
8 8 8 8 8 8 7 7 6 6 7 6 6 6 5 5 5 5 6 6 6 6 6 6 6 6 6 7 6 6 6 6 6 6 6 6 6 6 6 6 6 6 6
8 7 7 7 7 7 7 6 6 6 6 6 6 5 5 4 4 4 5 6 6 6 6 6 6 6 6 6 6 6 7 6 6 6 6 6 6 6 6 6 6 6 6
7 7 7 7 7 7 7 7 6 6 6 5 5 5 6 5 3 4 5 6 5 5 6 6 5 5 6 6 6 6 6 6 6 6 6 6 6 6 6 6 6 6 6
7 7 7 7 7 7 7 7 6 6 6 5 5 4 4 4 3 2 3 5 4 4 5 5 5 5 5 5 6 6 6 5 6 6 6 6 5 5 6 6 6 6 6
7 7 7 7 6 6 6 6 6 6 6 5 5 4 3 3 2 1 2 2 3 4 4 4 5 5 5 5 6 5 5 5 6 6 6 5 5 5 5 6 5 5 5
7 7 7 6 6 6 6 6 6 6 5 5 4 4 3 3 3 2 2 1 2 3 3 4 4 5 4 5 6 5 5 5 5 5 5 5 5 5 5 5 5 5 5
7 7 7 7 7 6 6 6 5 5 5 5 4 4 3 2 3 1 2 2 3 3 3 4 4 4 4 4 5 5 4 5 5 5 5 5 5 5 5 5 5 5 4
7 7 7 7 6 6 6 6 5 5 5 5 4 2 2 2 2 2 3 3 3 3 3 3 3 3 4 4 5 4 4 5 5 5 5 5 5 5 5 5 5 4 4
8 7 7 7 6 5 6 5 5 5 5 4 4 3 3 2 2 2 2 3 2 2 3 3 3 3 3 4 4 4 5 4 5 5 5 4 5 5 4 4 4 4 4
8 7 7 7 7 5 5 5 5 4 4 4 3 3 3 4 3 2 2 2 2 2 3 3 3 2 2 3 4 4 4 4 4 5 4 4 4 4 4 4 4 4 3
7 7 7 7 7 6 5 5 5 5 4 4 3 3 2 1 2 2 3 2 2 3 3 3 2 2 2 3 4 4 3 3 4 5 4 4 3 3 3 3 3 3 3
7 7 6 7 7 6 6 6 5 5 4 4 3 3 3 3 3 2 2 2 2 2 3 3 2 2 2 3 4 3 3 3 4 4 3 3 3 3 3 3 3 2 2
7 7 6 7 7 6 6 6 6 5 4 4 3 3 3 3 3 3 2 2 2 2 3 2 2 2 1 3 3 3 3 3 3 3 3 2 2 2 2 2 2 2 2
7 7 6 7 7 6 6 6 5 5 5 4 3 3 3 3 2 3 2 2 1 2 2 2 2 2 2 2 2 3 2 3 3 3 2 2 1 2 2 2 2 2 2
7 7 7 7 7 7 6 5 5 4 4 4 3 3 3 2 2 3 3 2 2 1 2 1 2 2 2 2 2 2 2 2 2 2 2 1 1 1 1 1 1 1 1
7 7 7 7 7 7 6 5 5 5 3 3 3 3 2 2 3 2 2 2 2 1 1 0 1 1 1 1 1 2 2 1 2 1 1 1 1 1 1 0 1 1 1
8 7 7 6 7 7 6 5 4 4 3 2 2 3 3 3 3 3 3 2 1 1 1 -0 1 1 0 -0 1 1 1 1 1 1 1 1 1 0 0 1 0 0 1
8 7 7 7 7 7 6 5 4 4 4 3 3 2 3 2 2 1 2 2 1 1 1 -1 -0 -0 0 0 0 1 0 0 1 1 1 0 -0 0 0 0 0 0 0
8 8 7 7 7 7 6 5 5 4 3 3 4 4 3 2 2 1 2 2 2 1 1 0 -0 -2 -1 -0 -0 0 -0 0 0 0 -0 -1 0 0 -0 -0 -0 -0 -0
8 8 7 7 7 7 6 6 5 4 4 3 3 3 3 3 2 2 3 2 2 1 1 -0 -1 -3 -1 -0 -1 -2 -2 -1 -1 -1 -0 -1 -0 0 0 -0 -1 -1 -0
8 8 7 7 7 7 7 6 6 5 4 3 3 3 2 2 2 2 2 2 0 -0 -0 -1 -2 -2 -1 -2 -2 -1 -1 -1 -1 -1 -1 -0 0 1 0 -0 -0 -0 -1
8 7 7 7 7 7 7 6 6 5 4 3 3 3 1 1 1 1 0 0 -0 -0 -1 -2 -1 -2 -3 -2 -2 -2 -2 -2 -1 -2 -1 -1 -1 -1 -1 -1 -0 -1 -0

GFSSE_700_temp_093.txt.gz
Temp
9 9 9 9 9 9 9 8 7 7 7 7 7 7 7 8 8 8 8 8 7 7 6 6 7 7 7 7 7 6 6 6 6 6 6 6 6 6 6 6 6 6 6
9 9 9 9 9 9 9 8 7 6 7 7 7 7 7 7 7 8 8 8 7 7 7 6 7 7 6 6 6 6 6 6 6 6 6 6 6 6 6 6 6 6 6
8 8 8 8 8 8 8 8 7 6 7 7 7 6 6 6 6 7 7 7 7 7 7 7 7 6 6 6 7 7 6 6 7 6 6 6 6 7 7 6 6 6 7
8 8 8 8 8 8 8 7 7 6 6 6 7 6 6 6 5 5 6 6 6 6 7 7 6 6 7 7 7 7 6 6 6 6 7 7 6 7 7 7 7 6 7
8 8 8 8 7 7 7 7 7 6 6 6 6 6 6 5 5 5 5 6 6 6 6 6 7 6 6 6 6 6 6 6 6 6 6 6 6 7 7 6 6 6 6
8 7 7 7 7 7 7 7 6 5 6 6 5 5 5 5 5 5 5 5 6 6 5 6 6 6 7 6 6 6 7 6 7 7 7 6 6 6 6 6 6 6 6
8 7 7 7 7 7 7 6 6 6 6 5 5 5 6 5 4 4 5 5 4 5 5 5 5 6 6 6 6 6 6 6 6 7 6 6 6 6 6 6 6 6 6
7 7 7 7 7 7 6 6 6 6 6 6 5 5 5 4 4 4 4 4 3 4 4 5 5 4 6 6 6 6 6 6 6 6 6 6 6 6 6 6 6 6 6
7 7 7 7 7 6 6 6 6 6 6 6 5 5 4 4 3 2 2 2 2 3 3 4 4 4 6 5 5 5 5 5 6 6 6 6 6 6 5 5 5 5 5
7 7 7 7 7 6 6 6 5 5 5 5 5 4 4 3 3 3 3 1 2 2 3 3 4 5 5 5 5 4 5 5 5 6 6 6 5 5 5 5 5 5 5
7 7 7 7 7 7 6 5 5 5 5 5 4 4 4 3 3 3 3 2 3 3 3 3 4 5 5 5 4 4 5 4 5 6 5 5 5 5 5 5 5 5 5
7 7 7 7 7 7 6 5 5 5 5 5 4 4 3 3 2 2 2 2 2 3 3 2 4 5 5 5 5 4 4 4 5 5 5 5 5 5 5 5 5 5 5
8 7 7 7 7 7 6 5 5 5 5 5 5 4 3 3 2 2 2 2 2 3 2 2 4 5 5 5 4 4 4 5 4 5 5 5 5 5 5 4 4 4 4
8 8 7 7 7 6 6 5 5 5 5 5 4 3 2 2 2 2 2 2 3 3 2 3 4 4 4 4 3 3 4 3 5 5 5 5 4 4 4 4 4 4 4
8 8 7 7 7 6 6 5 5 5 5 4 4 3 2 2 2 2 2 2 2 2 2 2 3 4 3 4 3 3 3 4 4 5 4 4 4 4 4 3 3 3 3
8 8 7 7 7 6 6 6 5 5 5 5 4 3 3 2 1 2 1 1 2 1 1 1 3 4 3 3 4 4 3 3 4 4 4 3 3 3 3 3 3 3 3
8 8 7 7 7 6 6 6 6 5 5 4 4 3 3 2 2 1 1 1 1 1 2 1 2 3 3 3 4 3 3 3 3 3 3 3 3 3 3 3 2 2 2
8 7 7 7 7 6 6 6 6 5 5 5 4 3 3 2 2 2 2 2 2 1 2 1 1 2 3 3 3 3 3 2 2 3 3 3 3 2 2 2 2 2 1
8 7 7 7 6 6 6 6 6 5 5 4 4 3 3 3 2 2 2 2 2 2 1 1 1 1 2 3 3 2 2 2 2 2 3 2 2 2 1 1 1 1 1
8 7 7 7 7 6 6 6 6 5 5 4 3 3 3 2 2 2 2 2 2 1 1 1 1 1 1 2 2 2 2 2 2 2 2 2 2 1 1 1 1 0 1
8 7 7 7 6 7 6 6 6 5 5 4 3 3 2 3 2 2 2 2 1 1 2 1 1 1 1 1 1 1 1 1 1 1 1 1 2 1 1 1 1 0 0
9 7 7 7 7 7 6 6 6 5 5 4 4 3 3 2 3 2 2 2 2 2 1 1 1 -0 0 1 1 1 1 1 0 1 1 1 1 1 1 -0 1 0 0
9 8 7 7 7 7 6 6 6 5 5 4 3 3 3 3 3 2 2 2 2 1 1 1 1 -1 -0 0 1 1 1 1 0 1 1 1 1 1 -1 -0 -1 0 -0
9 8 7 7 7 7 6 6 6 5 5 5 4 3 3 3 3 2 2 2 2 1 1 1 1 -2 -3 0 -0 0 -1 -1 -0 0 1 0 -0 -1 -1 -1 -1 -0 -0
9 8 7 7 7 7 6 6 6 6 5 5 4 4 4 3 3 1 1 2 2 1 1 0 0 -1 -2 -2 -1 -2 -2 -2 -1 -1 -1 -1 -2 -2 -2 -1 -1 -1 -1
9 8 7 7 7 7 6 7 6 6 6 5 4 3 3 3 3 1 2 2 2 1 1 1 0 -1 -1 -3 -3 -2 -2 -1 -2 -2 -2 -2 -1 -3 -2 -1 -1 -1 -1

GFSSE_700_temp_096.txt.gz
Temp
9 9 9 9 9 9 9 9 9 8 7 7 7 7 7 7 7 7 8 8 7 7 7 7 7 7 7 7 7 7 7 7 6 6 6 6 6 6 6 6 6 6 6
9 9 8 8 8 8 8 9 8 7 6 6 7 7 7 7 7 7 7 7 7 7 6 6 7 7 7 6 6 6 6 6 6 6 6 6 6 6 6 6 7 7 7
8 8 8 8 8 8 8 8 7 7 6 6 6 6 6 6 6 7 7 7 7 6 6 6 6 7 6 6 6 6 6 6 6 6 6 6 6 6 7 6 7 7 7
8 8 8 8 7 7 7 7 7 7 6 6 6 6 6 6 6 6 6 7 7 6 6 6 6 6 6 6 6 6 6 6 6 6 6 6 6 6 7 6 7 6 6
8 8 7 7 7 7 7 7 7 6 5 5 6 6 5 6 5 5 6 6 6 6 6 6 5 6 6 6 6 6 6 6 6 6 6 6 6 6 6 6 7 6 6
8 7 7 7 7 7 7 7 6 5 5 5 5 5 5 4 5 5 5 5 5 5 6 5 5 5 6 6 6 6 6 6 6 6 6 6 6 6 6 6 6 6 6
8 7 7 7 7 7 6 6 6 6 5 5 4 4 5 3 4 4 4 4 4 4 4 5 5 5 5 5 5 6 6 6 6 6 6 6 6 6 6 6 6 6 6
8 7 7 7 7 7 6 6 6 6 6 6 5 4 5 5 4 3 4 4 3 3 3 4 5 5 5 5 5 6 6 6 6 6 6 6 6 6 6 6 6 5 5
8 8 8 7 7 7 6 6 6 6 6 6 6 5 5 5 4 4 3 3 2 3 2 4 4 5 4 5 5 5 5 5 6 6 6 6 5 6 5 5 6 5 5
8 8 7 7 7 7 7 6 5 5 5 5 5 5 5 5 4 4 4 4 2 2 1 3 4 4 4 4 5 4 5 5 5 5 5 5 6 6 5 5 5 5 5
8 8 7 7 7 7 7 7 6 5 5 5 4 4 4 4 4 4 3 3 3 3 2 2 4 4 4 4 4 4 5 5 5 5 5 5 5 5 5 5 5 5 5
8 8 7 7 7 7 7 7 6 5 4 5 5 4 4 4 3 3 3 3 3 2 2 2 3 3 4 4 4 4 4 4 4 5 4 5 5 5 5 4 5 5 5
8 8 7 7 7 7 7 7 6 5 5 5 4 4 4 4 3 3 2 2 3 3 1 2 2 3 3 4 4 4 3 4 4 4 5 4 4 4 4 4 4 4 4
7 8 7 7 7 7 7 7 6 5 5 5 4 4 4 3 3 2 2 2 2 2 2 2 3 3 3 3 4 4 3 4 4 4 4 4 4 4 4 4 4 4 4
8 8 7 7 7 7 7 6 6 5 5 5 4 4 3 4 3 2 1 2 2 2 2 1 2 3 3 3 3 3 3 3 3 3 5 4 4 4 4 4 4 4 3
8 8 7 7 7 7 7 6 6 6 5 5 5 4 3 3 2 2 2 2 2 2 1 2 2 2 3 3 3 3 3 3 3 4 4 4 3 3 3 3 3 3 3
8 8 8 7 7 7 6 6 6 6 6 5 5 4 4 3 2 1 2 2 2 1 1 2 1 2 2 3 3 3 2 3 3 3 3 3 3 3 3 3 3 3 3
8 8 7 7 7 6 6 6 6 6 6 5 5 5 4 3 2 3 2 1 2 1 0 2 1 1 2 2 3 2 2 2 3 3 3 3 3 3 3 2 2 2 2
8 8 7 7 7 6 6 6 6 6 6 5 5 5 4 3 3 2 2 1 1 1 2 1 1 0 2 2 2 2 2 2 2 2 2 2 3 2 2 2 2 2 2
8 8 8 7 7 6 6 6 6 6 5 5 4 4 4 3 3 2 2 2 1 2 1 1 1 2 2 2 2 1 1 1 1 1 2 1 3 2 2 1 1 1 1
8 8 8 7 7 6 6 6 6 6 5 5 5 4 3 2 2 2 2 2 1 2 2 1 1 1 1 1 2 1 1 0 1 1 1 1 1 2 2 1 1 1 1
9 8 8 8 7 6 6 6 6 6 6 5 5 4 4 1 2 2 2 2 1 1 1 1 1 1 0 1 1 1 1 0 0 0 1 1 1 1 1 1 1 0 -0
9 9 8 8 7 6 6 6 6 6 6 5 5 4 4 2 2 1 3 2 2 1 1 0 0 0 1 1 1 0 1 1 1 1 1 1 1 1 1 0 0 -0 -2
9 9 8 8 7 6 6 6 6 6 6 5 5 4 4 3 2 2 3 2 2 2 1 1 1 1 0 1 -1 -1 -0 -0 1 1 0 -0 -0 -0 1 0 -0 -1 -1
9 9 8 8 7 7 6 6 6 6 6 5 5 5 4 4 3 3 3 3 2 2 1 2 1 0 1 0 -1 -3 -1 -1 -1 -2 -1 -1 -1 -0 -1 -2 -2 -1 -2
8 8 8 8 7 7 6 6 6 6 6 6 5 5 4 4 4 3 4 3 2 2 1 1 1 1 1 1 -1 -4 -4 -3 -3 -3 -2 -1 -2 -1 -2 -2 -2 -2 -1

GFSSE_700_temp_099.txt.gz
Temp
9 9 9 9 9 9 9 9 9 8 8 7 7 7 7 7 7 7 7 7 7 7 6 6 6 6 6 6 7 7 7 6 6 6 6 7 6 6 6 6 6 6 6
9 9 8 8 8 8 8 8 8 7 7 6 6 6 7 7 7 7 7 7 7 7 7 6 6 6 6 6 6 6 6 6 6 6 6 6 6 6 6 6 6 6 7
8 8 8 8 8 8 8 8 7 7 6 6 6 6 6 6 7 7 7 7 7 7 7 6 6 6 6 6 6 6 6 6 6 6 5 6 6 6 6 5 6 6 6
8 8 8 8 8 7 7 7 7 7 6 5 5 6 6 6 6 6 6 6 6 6 6 6 6 6 6 6 6 5 5 5 6 5 6 6 5 5 6 6 6 6 6
8 8 8 8 7 7 7 7 7 6 6 5 5 5 5 5 5 5 5 5 5 5 5 6 6 6 6 5 5 5 5 5 5 6 5 5 6 5 6 6 6 6 6
8 8 7 7 7 7 7 7 7 6 6 5 5 5 5 5 5 4 4 4 4 5 5 5 5 6 6 5 5 5 5 6 6 6 6 6 6 6 6 6 6 6 6
8 8 7 7 7 7 7 7 6 6 6 5 5 5 5 4 4 4 3 3 4 4 5 4 4 5 5 5 5 5 5 5 5 5 5 6 6 6 6 6 6 6 6
8 8 8 7 7 7 7 7 6 6 6 5 5 5 5 4 4 4 4 3 3 3 4 4 3 4 5 5 5 5 5 5 5 5 5 5 5 5 5 6 6 6 5
8 8 8 7 7 7 7 7 6 6 6 5 5 5 4 4 4 3 4 3 4 3 2 2 2 3 4 5 5 5 5 5 5 5 5 5 5 5 5 5 6 5 5
8 8 8 7 7 7 7 7 7 6 5 5 5 5 4 4 4 3 4 3 3 3 2 2 2 2 3 4 4 4 4 5 5 5 5 5 5 5 4 5 5 5 5
8 8 8 7 7 7 7 7 7 6 6 5 5 5 4 4 4 4 3 3 3 3 2 2 2 2 2 3 4 4 4 5 4 5 5 5 5 4 5 5 5 5 5
8 8 8 7 7 7 7 7 7 7 6 5 4 4 4 4 4 4 3 3 3 3 3 2 2 2 2 3 2 4 4 4 4 4 5 5 4 4 5 5 5 5 4
8 8 8 7 7 7 7 7 7 6 5 4 4 4 4 4 4 4 3 3 3 3 3 2 2 1 2 3 4 4 4 4 4 4 5 4 4 4 4 4 4 4 4
8 8 8 7 7 7 7 7 7 6 5 5 5 5 4 4 4 4 3 2 3 2 3 2 1 2 2 3 3 3 3 4 4 4 4 4 3 4 4 4 4 4 4
8 8 8 7 7 7 7 7 7 6 6 5 5 5 4 4 4 3 3 3 2 2 2 2 2 2 2 2 3 3 3 3 3 4 4 3 3 4 4 4 3 3 4
8 8 7 7 7 7 6 7 7 6 6 5 5 5 4 4 4 3 3 2 1 1 2 2 1 2 2 2 2 2 2 3 3 3 3 3 3 4 4 3 3 3 3
8 8 7 7 7 6 6 6 6 6 6 5 5 5 4 4 3 3 2 3 2 2 2 2 1 1 2 2 2 2 2 2 3 3 3 2 3 3 3 3 3 3 3
8 8 7 7 7 6 6 6 6 6 6 5 5 5 5 4 3 3 2 3 1 2 2 2 1 1 1 1 2 2 2 2 2 3 2 2 3 3 3 3 3 2 2
8 8 8 7 7 7 7 7 6 6 6 5 5 5 4 3 3 2 2 3 1 1 1 2 2 1 1 -0 1 1 1 1 2 2 2 2 2 2 2 2 2 2 2
8 8 8 7 7 7 7 7 6 6 6 5 5 4 4 3 3 2 2 2 2 2 1 1 1 1 0 0 1 1 1 1 1 2 1 1 2 1 1 2 2 1 1
8 8 8 8 8 7 7 7 6 6 6 5 5 4 4 2 2 2 2 2 2 2 1 1 0 0 0 -1 0 0 1 0 1 1 1 1 1 1 1 1 1 1 1
8 8 8 8 8 7 7 6 6 6 6 5 5 4 4 3 2 2 2 2 2 1 2 1 2 1 0 -0 1 0 1 1 1 1 1 1 1 1 1 1 2 1 1
8 8 9 8 8 7 7 6 6 6 6 6 5 5 4 3 2 2 2 2 2 2 1 1 2 1 1 1 1 1 1 1 1 1 2 1 1 1 1 1 1 1 0
8 8 9 9 8 7 7 6 6 6 6 6 6 5 4 4 2 2 2 2 2 2 2 1 1 2 3 1 2 1 0 -0 0 1 1 1 1 1 1 0 0 0 0
8 9 9 9 8 7 7 6 6 6 6 6 6 5 4 4 3 2 2 2 2 2 1 1 1 1 1 1 1 1 -0 -0 -0 -0 -0 -0 1 -0 -0 -1 -0 -0 -1
8 9 9 9 8 8 7 6 6 6 6 6 6 5 4 3 3 3 3 2 2 2 2 1 1 1 1 1 0 0 0 -0 -0 -1 -1 -2 -2 -2 -1 -1 -1 -1 -2

GFSSE_700_temp_102.txt.gz
Temp
11 10 9 9 9 9 9 9 9 9 8 7 7 7 7 7 7 7 7 7 7 6 6 7 6 6 6 6 7 6 7 6 6 6 6 6 6 6 6 6 6 6 6
10 9 9 9 9 9 9 9 8 8 7 7 6 7 7 6 6 6 7 7 6 6 6 6 6 6 6 6 6 6 6 6 6 6 6 6 6 6 6 6 6 5 6
9 9 9 8 8 8 8 8 8 7 7 7 6 6 6 6 6 6 6 6 6 6 6 5 6 6 6 6 6 6 6 6 6 6 5 6 6 6 6 6 6 6 6
9 8 8 8 8 8 8 8 7 7 7 6 6 6 6 6 6 6 6 6 6 6 6 5 5 5 6 6 5 5 5 6 5 5 5 5 5 6 6 6 6 6 6
9 8 8 8 8 8 8 8 7 7 6 6 5 5 6 6 5 5 5 5 5 5 5 5 5 5 5 5 5 5 5 5 6 5 5 5 5 5 5 6 6 6 6
8 8 8 8 8 8 8 7 7 7 7 6 5 5 5 5 5 5 4 5 4 4 4 5 5 5 5 5 5 5 5 5 5 5 5 5 5 5 6 6 6 6 6
9 8 8 8 8 8 8 7 7 7 7 6 5 5 5 5 5 5 4 4 3 4 4 4 4 4 4 4 4 4 5 5 5 4 5 5 5 5 6 6 5 6 6
9 8 8 8 8 8 7 7 7 7 6 6 5 5 5 5 4 5 4 4 4 2 4 3 4 4 3 4 4 4 5 4 4 5 5 5 5 5 5 5 5 5 5
9 8 8 8 8 8 8 7 7 7 6 6 6 5 5 5 4 4 4 4 3 4 4 3 2 2 3 3 4 4 4 4 4 4 4 5 5 5 5 5 5 5 5
9 8 8 8 8 8 8 7 7 7 7 6 5 5 4 4 4 4 3 4 3 4 3 3 3 2 2 2 3 3 3 4 3 4 4 5 5 5 5 5 5 4 5
9 8 8 8 8 8 7 7 7 7 7 6 5 5 4 4 4 4 4 4 4 3 3 3 3 2 2 2 3 3 3 3 3 4 4 5 5 4 5 5 4 4 5
9 8 8 8 8 7 7 7 7 7 7 6 5 5 4 4 4 4 4 4 4 3 3 3 2 2 1 2 2 3 3 3 3 3 4 4 4 4 4 4 4 5 5
8 8 8 8 8 7 7 7 7 7 7 7 6 4 4 4 4 4 4 4 4 3 3 3 2 2 1 2 2 2 3 3 3 4 4 4 4 4 4 3 4 4 4
8 8 8 8 8 7 7 7 7 7 7 7 6 5 4 4 4 4 4 4 4 3 3 3 2 2 2 2 2 2 2 2 3 3 4 4 4 4 3 3 4 4 4
8 8 8 8 7 7 7 7 7 7 7 7 6 6 5 5 4 4 4 4 3 3 3 2 3 1 2 2 2 2 2 3 3 3 4 4 4 4 3 4 3 4 4
8 8 8 8 7 7 7 6 6 6 7 7 7 6 5 5 4 4 4 3 3 3 2 2 2 2 2 2 2 2 2 2 2 3 3 4 3 3 3 3 3 3 3
8 8 8 8 7 7 6 6 6 6 6 7 6 6 5 4 4 4 3 3 3 3 2 2 2 2 2 2 1 2 1 2 2 3 3 3 3 3 3 3 3 3 3
8 8 8 8 7 7 6 6 6 6 6 6 6 6 5 4 4 3 3 3 2 3 2 2 2 2 1 1 2 2 1 2 2 2 3 3 3 3 3 3 3 3 2
8 8 8 8 8 7 6 6 6 6 6 6 6 6 5 4 4 3 3 2 2 3 2 2 2 2 2 1 1 2 1 2 2 2 3 3 3 2 2 3 2 2 2
8 8 8 8 8 7 7 7 7 6 6 6 6 6 5 4 4 3 3 2 2 3 2 2 2 2 0 0 1 1 1 2 2 2 2 3 2 2 2 2 2 2 2
8 8 8 8 8 8 7 7 7 6 6 6 6 6 5 4 4 3 3 2 2 3 2 2 1 2 1 -0 0 1 0 1 2 1 1 2 2 2 2 2 1 2 2
7 8 8 8 8 8 8 7 7 6 6 6 6 5 5 5 3 2 2 1 2 2 2 1 1 1 1 0 1 0 0 1 1 1 1 1 2 2 2 2 2 2 2
7 7 8 8 8 8 8 7 7 6 6 6 6 6 5 4 3 2 2 2 1 1 2 1 1 0 1 0 0 -0 2 1 2 2 2 2 2 2 2 2 2 1 1
6 7 7 7 8 8 8 7 7 6 6 6 6 6 5 4 3 3 2 2 2 2 2 1 2 1 1 1 1 1 0 1 2 2 2 1 1 1 1 1 1 1 1
7 7 7 7 8 8 8 7 7 6 6 6 6 6 5 4 4 3 2 2 2 2 1 1 1 2 1 1 1 1 1 2 1 1 1 1 1 1 1 1 1 0 1
7 7 7 8 8 8 8 8 7 6 6 6 6 5 5 5 4 3 2 2 1 1 2 2 1 1 2 1 1 0 1 1 0 -0 -0 -0 0 -0 -0 -1 -0 -0 -0

GFSSE_700_temp_105.txt.gz
Temp
11 11 10 10 9 9 9 9 9 9 9 8 8 7 7 7 7 7 6 7 7 6 7 7 7 6 6 6 6 6 6 6 6 6 6 7 6 6 6 6 6 6 6
12 11 10 9 9 9 9 9 9 9 8 8 7 7 7 7 6 6 6 6 7 7 6 6 6 6 6 6 6 6 6 6 6 6 6 6 6 6 6 6 6 6 6
12 11 9 9 9 9 9 9 8 8 8 8 7 7 6 6 6 6 6 6 6 6 6 6 6 6 6 6 6 6 6 6 6 6 6 6 6 6 5 6 6 6 6
11 10 9 9 9 9 8 8 8 8 8 7 7 7 6 6 6 6 6 6 6 6 5 6 6 5 5 5 5 5 5 5 5 5 5 5 5 5 5 5 6 6 6
10 9 9 9 9 9 8 8 8 8 7 7 6 6 6 6 6 5 5 6 5 5 5 5 5 5 5 5 5 5 5 5 5 5 5 5 5 5 5 5 5 5 5
10 9 9 9 8 8 8 8 8 8 7 7 6 6 6 5 5 6 5 5 5 4 5 5 4 4 5 5 5 4 4 4 5 4 4 5 5 5 5 5 5 5 6
9 9 9 8 8 8 8 8 8 8 7 7 6 6 5 5 5 5 5 4 5 4 4 4 4 4 4 4 4 4 4 4 4 4 4 4 5 5 4 5 6 6 5
9 9 9 8 8 8 8 8 8 7 7 6 6 5 5 5 5 5 4 4 4 5 4 3 4 4 4 4 3 4 4 4 3 5 4 5 5 5 5 5 6 6 6
9 9 8 8 8 8 8 8 8 7 7 6 6 6 5 5 5 4 4 4 4 4 4 3 3 4 3 3 4 3 4 4 3 4 3 4 4 4 5 5 5 5 5
9 9 9 8 8 8 8 8 7 7 7 6 6 6 6 5 5 4 4 4 4 4 3 3 3 3 3 3 3 3 3 3 3 3 4 5 4 5 5 5 5 5 5
9 9 9 8 8 8 8 8 7 7 7 6 6 6 5 5 5 4 4 4 4 3 3 3 3 3 3 2 2 2 3 2 3 2 4 4 4 5 5 5 5 5 5
9 9 8 8 8 8 8 8 7 7 7 7 6 6 5 5 4 4 4 4 4 3 3 3 3 3 2 2 2 2 2 3 2 2 4 4 4 4 4 4 4 5 4
9 9 8 8 8 8 8 8 7 7 7 7 6 6 5 4 4 4 4 4 4 4 4 4 4 3 2 2 2 1 2 3 2 2 4 4 4 4 4 4 4 4 4
9 9 8 8 8 8 7 8 7 7 7 7 7 6 6 5 5 4 4 4 4 4 4 4 4 3 3 2 2 2 2 1 1 2 4 4 4 4 4 4 4 4 4
8 9 8 8 8 8 7 7 7 7 7 7 7 7 6 5 5 5 4 4 4 4 4 4 3 3 2 2 1 2 2 1 2 3 4 4 4 4 4 4 4 4 4
7 8 9 8 8 8 7 7 7 7 7 7 7 7 7 6 5 5 5 4 4 4 4 3 3 2 2 1 1 2 1 1 1 4 4 4 4 4 4 4 4 4 3
8 7 9 8 8 8 7 7 7 6 7 6 6 6 7 6 6 6 5 4 4 4 3 3 3 2 1 3 2 1 1 1 1 4 4 4 4 4 4 3 4 3 3
8 7 8 9 8 8 7 7 7 6 6 6 6 6 6 6 6 5 5 4 3 3 3 3 3 2 3 1 2 2 1 2 2 4 3 3 4 3 3 4 4 3 3
8 7 6 9 8 8 7 7 7 7 6 6 6 6 6 6 5 5 5 4 3 3 3 3 3 2 2 1 2 2 1 1 2 3 3 3 3 4 3 3 3 3 3
7 6 6 8 8 8 8 7 7 7 6 6 6 6 6 6 5 4 4 3 3 3 2 3 2 2 2 1 2 2 1 -0 2 3 2 3 3 3 3 3 3 3 3
6 6 8 8 8 8 8 8 7 7 6 6 6 6 6 6 5 4 4 3 2 2 3 3 2 2 2 1 2 1 -0 1 2 3 2 2 3 3 3 3 3 3 3
6 7 8 8 8 8 8 8 7 7 6 6 6 6 6 6 5 4 4 3 2 2 2 3 1 2 1 2 2 1 -0 1 0 2 2 1 2 3 3 3 3 3 2
6 6 7 8 8 8 8 8 8 7 7 7 6 6 6 6 5 3 3 3 3 2 2 2 2 1 1 1 1 1 1 1 1 0 1 2 1 2 2 2 3 2 2
5 5 6 7 7 8 8 8 8 8 7 6 6 6 6 6 5 4 4 3 2 2 1 2 1 1 2 1 1 -0 -0 -0 -1 1 2 2 2 2 2 2 2 2 2
5 5 5 6 7 7 8 8 8 8 7 7 6 6 6 6 5 5 3 3 2 2 1 1 2 2 1 1 1 0 0 1 -0 -1 1 2 2 2 1 1 1 2 2
4 5 5 6 7 7 7 8 8 8 7 7 6 6 6 6 5 5 4 3 2 2 2 1 1 0 0 0 0 0 0 1 1 -0 1 2 1 1 1 0 1 0 1

GFSSE_700_temp_108.txt.gz
Temp
12 12 12 11 10 10 10 9 9 9 9 9 8 8 8 7 7 7 7 7 7 7 7 7 7 7 6 6 6 6 6 6 6 6 6 6 6 6 6 6 6 6 6
12 12 12 11 10 9 9 9 9 9 9 9 8 8 7 7 7 6 7 7 7 6 7 7 7 6 6 6 6 6 6 6 6 6 6 6 6 6 6 5 6 5 6
12 12 11 10 9 9 9 9 9 9 8 8 8 8 7 7 7 7 6 6 6 6 6 6 7 7 6 6 6 6 5 5 5 5 6 6 5 5 5 5 5 5 5
12 12 11 10 9 9 9 9 9 9 8 8 8 7 7 7 6 6 6 6 6 6 6 6 6 6 6 6 6 5 5 5 5 5 5 5 5 5 5 5 5 6 5
12 12 11 10 10 9 9 9 9 8 8 8 7 7 7 6 6 6 6 6 6 6 6 6 5 6 6 6 5 5 5 5 5 5 5 5 5 5 5 5 5 5 5
11 11 10 10 10 9 9 9 9 8 8 7 7 7 6 6 6 6 6 5 5 5 5 5 5 5 5 6 5 5 5 4 5 5 4 4 4 4 5 5 5 5 6
11 10 10 9 9 9 9 9 8 8 8 7 7 6 6 6 6 5 5 5 5 4 5 5 5 5 5 5 5 5 4 4 4 4 4 4 4 4 5 5 5 5 6
10 10 9 9 9 9 9 8 8 8 8 7 7 6 6 6 6 5 5 5 5 4 4 4 4 4 4 4 4 4 4 4 4 4 4 4 4 4 5 5 5 6 6
10 10 9 9 9 8 8 8 8 8 8 7 7 6 6 5 5 5 5 4 4 5 4 4 4 3 3 3 3 3 4 4 4 4 3 4 4 4 5 5 5 5 5
10 10 9 9 9 8 8 8 8 7 7 7 7 6 6 6 5 5 4 4 4 4 4 3 4 4 3 3 2 3 3 3 4 3 3 4 4 5 5 5 5 5 5
9 9 9 9 9 8 8 8 8 7 7 7 7 7 6 6 5 5 4 4 4 4 4 3 3 4 4 3 2 2 2 2 3 4 4 3 4 5 5 5 5 5 5
10 9 9 9 9 8 8 8 8 7 7 7 7 7 6 5 5 5 4 4 4 4 4 3 4 4 3 3 2 2 2 1 3 4 3 3 4 5 4 5 4 4 5
10 9 10 9 9 9 8 8 8 8 7 7 7 7 6 5 5 4 4 4 4 4 4 4 4 4 3 3 3 2 2 1 3 3 3 3 4 4 4 4 4 4 4
10 9 9 9 8 9 8 8 8 8 7 7 7 7 7 6 5 4 4 4 4 4 4 4 4 4 3 2 2 2 2 2 2 3 3 3 4 4 4 4 4 4 4
7 8 9 9 9 9 8 9 8 7 7 7 7 7 7 6 6 5 5 5 4 4 4 4 4 3 3 3 2 2 2 2 2 2 2 4 4 4 4 4 4 4 4
8 8 7 9 9 8 9 8 8 8 7 7 7 7 7 6 6 5 5 5 4 4 4 4 4 3 2 2 2 1 1 2 2 2 2 3 3 4 4 4 4 4 4
8 8 7 7 9 8 8 8 8 7 7 7 7 7 6 6 6 5 5 5 4 4 4 4 4 3 3 2 2 1 1 1 2 2 2 3 4 4 4 4 4 4 4
8 8 8 7 8 9 8 9 8 8 7 7 7 7 6 6 6 5 5 5 4 4 4 3 3 3 3 2 1 0 1 2 2 1 2 3 4 4 4 4 4 4 4
8 8 8 8 7 8 8 8 8 8 8 7 7 7 6 6 6 5 5 5 4 4 4 3 3 3 3 2 1 1 2 2 1 1 3 4 3 4 4 4 4 4 4
8 8 8 8 7 8 8 8 8 8 8 7 7 7 7 6 6 6 5 5 4 4 3 3 3 3 2 2 1 1 2 1 2 2 3 3 4 4 4 4 4 4 4
8 8 8 8 7 8 8 8 8 8 8 7 7 7 7 6 6 6 5 5 4 3 3 3 3 3 3 2 2 1 2 0 1 2 3 3 3 3 4 4 4 4 4
7 8 7 7 7 8 8 8 8 8 8 7 7 7 7 6 6 6 6 6 4 3 3 3 3 2 1 2 2 0 1 0 1 0 2 2 3 3 3 4 4 4 4
7 7 7 7 6 7 8 8 8 8 8 7 7 7 6 7 6 6 6 5 4 3 2 3 3 2 2 2 2 1 1 1 0 0 1 0 2 3 2 3 3 3 3
7 7 6 6 6 6 7 8 7 8 8 8 7 7 6 6 6 6 6 5 4 3 3 3 2 2 2 1 1 1 1 2 1 0 0 -0 1 2 2 2 2 3 3
6 6 6 6 5 5 6 7 7 8 8 8 7 7 7 7 6 6 6 6 5 4 3 2 2 2 1 1 1 1 1 1 -0 -1 -0 0 0 1 2 3 2 2 2
5 6 5 5 5 5 5 7 7 7 7 8 8 7 7 6 6 6 6 6 4 4 3 2 2 2 2 1 1 1 0 1 0 0 0 -0 -1 0 1 1 1 1 1

GFSSE_700_temp_111.txt.gz
Temp
12 12 12 12 11 10 10 9 9 9 9 9 8 8 8 7 7 7 7 7 7 7 7 7 7 7 6 6 6 6 6 6 6 6 6 6 6 6 6 6 6 6 6
12 12 12 12 11 10 9 9 9 9 8 8 8 8 8 7 7 7 7 7 7 7 7 7 7 7 6 6 6 6 6 6 6 6 6 6 6 6 5 5 5 5 6
12 12 12 12 11 10 9 9 8 8 8 8 8 8 8 7 7 7 6 7 7 7 7 7 7 7 7 7 6 6 6 6 6 6 6 6 5 5 5 5 5 5 5
12 12 12 12 11 10 9 9 9 9 9 9 8 8 7 7 6 6 6 7 7 7 6 6 6 6 6 6 6 6 6 6 6 5 5 5 5 5 5 5 5 5 6
12 12 12 11 11 10 10 10 9 9 9 9 8 8 7 6 6 6 6 6 6 6 6 6 5 5 5 6 5 5 5 5 5 5 5 5 5 4 5 5 5 5 6
12 12 11 11 11 10 10 9 9 9 8 8 8 7 7 6 6 6 6 6 6 6 6 5 5 5 5 5 5 5 5 5 5 5 5 4 4 4 5 5 5 6 6
11 11 11 11 11 10 10 9 9 8 8 8 8 7 7 6 6 6 6 5 5 5 5 5 5 4 4 4 5 5 4 4 5 5 4 4 4 4 4 5 5 5 5
11 11 11 11 10 10 9 9 8 8 8 8 7 7 7 6 6 5 5 5 5 5 5 5 5 4 4 4 4 4 4 4 4 4 4 4 3 4 5 5 5 5 5
10 10 11 10 10 10 9 9 8 8 8 8 7 7 7 6 6 5 5 5 5 5 5 4 4 4 4 4 3 3 4 4 4 4 4 4 4 4 4 5 5 5 5
10 10 10 10 10 10 9 9 8 8 8 8 7 7 7 6 6 5 5 4 5 4 4 4 4 4 4 3 3 3 2 3 4 4 4 4 4 4 4 5 5 5 6
10 10 10 10 10 10 9 9 8 8 8 8 7 7 7 6 6 5 5 4 4 4 4 4 4 4 4 4 3 3 2 2 3 3 3 3 4 4 4 4 5 5 5
10 10 10 10 10 10 10 9 8 8 8 7 7 7 7 7 6 5 5 4 4 4 4 4 4 4 4 4 3 3 2 2 3 3 3 3 4 4 4 4 4 5 5
9 9 9 9 10 10 10 9 8 8 8 7 7 7 7 7 6 6 5 4 4 4 4 4 4 4 4 3 3 2 3 2 2 2 2 3 3 3 4 4 4 5 5
10 9 9 9 9 10 9 9 8 8 8 7 7 7 7 7 7 6 5 4 4 4 4 4 4 4 3 3 3 2 2 2 2 2 2 3 3 3 4 4 4 4 5
8 9 9 9 9 9 9 9 9 8 8 8 7 7 7 7 7 6 6 5 4 4 4 4 4 4 3 3 3 2 2 2 2 2 2 3 3 3 4 4 4 4 5
8 7 8 8 8 9 9 9 9 8 8 8 8 7 7 7 7 6 6 6 5 4 4 4 4 4 3 3 3 3 2 3 2 2 2 2 3 3 3 4 4 4 5
8 8 7 7 7 8 9 9 9 9 8 8 7 7 7 6 7 7 6 6 5 4 4 4 4 4 4 3 3 2 2 2 2 2 2 2 3 3 3 4 4 4 4
8 8 8 8 7 7 7 8 9 9 9 8 7 7 7 7 6 7 6 6 5 4 3 3 4 4 4 3 2 2 2 2 2 2 2 2 2 3 3 4 4 4 4
8 8 8 8 8 8 7 8 8 9 9 8 7 7 7 7 6 6 6 6 5 5 4 4 4 4 3 3 2 2 1 1 2 2 1 2 2 3 3 4 4 4 4
8 8 8 8 8 8 7 7 8 8 8 8 8 7 7 7 6 6 6 6 6 5 4 3 3 3 3 3 2 2 1 1 2 2 1 2 2 3 4 4 4 4 4
7 8 8 8 8 8 8 7 7 8 8 8 8 7 7 7 6 6 6 6 6 5 4 3 3 3 3 3 2 2 2 1 2 2 1 2 2 3 3 3 4 4 4
7 8 8 8 8 8 8 7 7 7 8 8 8 7 7 7 6 6 6 6 6 6 4 4 3 3 3 2 2 1 1 1 1 1 1 2 2 3 3 3 4 4 4
7 7 7 7 7 7 7 7 7 7 7 8 8 7 7 7 6 6 6 6 6 6 5 4 3 3 3 2 2 1 2 1 1 1 1 1 3 3 3 3 3 3 3
7 7 7 7 7 7 7 7 7 7 7 8 8 7 7 6 6 6 6 6 6 6 5 4 3 3 2 2 2 2 1 1 1 1 1 1 1 2 2 3 3 3 3
6 7 7 6 6 7 7 6 6 6 6 7 7 7 7 7 6 6 6 6 6 5 5 4 3 3 2 3 1 2 1 1 1 1 1 1 1 2 2 2 2 2 2
6 6 6 6 5 5 5 6 6 6 6 7 7 7 7 7 6 6 6 6 6 5 5 4 3 2 2 2 2 1 2 1 1 1 0 -0 0 -0 2 1 1 1 1

GFSSE_700_temp_114.txt.gz
Temp
12 12 12 12 12 11 10 10 9 9 9 8 8 8 8 8 7 7 7 7 7 7 7 7 7 6 6 6 6 6 6 6 6 6 6 6 6 6 6 6 6 6 6
12 12 12 12 11 11 10 9 9 9 8 8 8 8 8 7 7 7 7 7 7 7 7 7 7 7 6 6 6 6 6 6 6 6 6 6 6 5 5 6 6 6 6
12 12 12 12 11 11 10 9 9 8 8 8 8 8 8 7 7 7 7 7 7 7 7 7 7 6 6 6 6 6 6 6 6 6 6 6 6 5 5 5 6 6 6
11 12 12 12 11 11 11 9 9 8 8 8 8 8 7 7 7 6 6 7 7 6 6 6 6 6 6 6 6 6 6 6 6 6 6 6 5 5 5 5 5 5 5
12 12 12 12 11 11 11 10 9 9 9 9 8 8 7 7 6 6 6 6 6 6 6 6 6 6 5 6 6 5 6 5 5 5 6 5 5 5 5 5 5 5 5
12 12 12 12 11 11 11 10 10 9 9 9 8 8 7 7 6 6 6 6 6 6 6 6 5 5 5 5 5 5 5 5 5 5 5 5 5 4 5 5 5 5 5
12 12 12 11 11 11 11 10 10 9 9 8 8 8 7 7 6 6 6 6 6 6 6 5 5 5 5 5 5 5 5 5 5 5 5 5 4 4 4 5 5 5 5
11 11 11 11 11 11 11 10 10 9 9 8 8 8 8 7 6 5 5 5 5 5 5 5 5 5 5 5 4 5 5 5 5 5 4 4 4 4 4 4 5 5 6
11 11 11 11 11 11 11 10 10 9 9 8 8 8 7 7 6 5 5 5 5 5 5 5 5 4 4 4 4 3 4 4 4 5 4 4 3 2 4 4 4 5 5
11 11 11 10 11 10 10 10 9 9 9 8 8 7 7 7 6 6 5 5 5 4 4 4 4 4 4 4 3 3 3 4 3 4 4 3 3 3 4 4 4 5 5
10 10 10 10 10 10 10 10 9 9 9 8 8 7 7 7 6 6 5 5 4 4 5 4 4 4 4 4 3 3 3 3 3 3 4 4 3 3 4 4 5 5 5
10 10 10 10 10 10 10 9 9 9 9 8 8 7 7 7 6 6 6 5 4 4 4 4 4 4 4 3 3 3 3 3 3 2 3 3 3 3 3 4 4 5 5
9 9 9 9 9 10 10 9 9 9 9 8 8 7 7 7 7 6 6 6 5 5 4 4 4 4 4 3 3 3 3 3 2 2 2 3 3 3 3 4 4 5 5
10 9 9 9 9 9 9 9 9 9 9 8 8 7 7 7 7 7 6 6 5 5 4 4 4 4 4 3 3 3 3 4 2 2 2 2 2 3 3 4 4 5 4
9 9 9 9 9 9 9 9 9 9 9 8 8 8 7 7 7 7 7 6 6 5 5 4 4 4 3 3 3 3 3 3 2 2 2 2 2 2 3 4 4 4 4
9 9 9 8 8 8 9 9 9 8 8 8 8 8 7 7 7 7 7 7 6 6 5 4 4 3 3 3 3 3 2 3 3 2 2 2 1 2 3 4 4 4 4
8 8 8 9 7 8 8 8 8 8 8 8 8 8 7 7 7 7 7 7 6 6 5 5 4 4 4 4 3 3 3 2 2 2 2 2 1 2 2 3 4 4 4
8 8 8 8 8 7 7 7 8 8 8 8 8 8 8 7 7 7 7 7 6 6 5 5 4 4 3 3 3 3 2 2 2 3 2 2 2 2 2 3 4 4 4
8 8 8 8 8 8 8 7 7 7 8 8 8 8 8 7 7 7 7 6 6 6 6 5 5 4 3 3 3 3 2 1 2 1 2 2 2 2 2 3 4 4 4
9 8 8 8 8 8 8 8 7 7 7 8 8 8 8 7 7 7 7 6 6 6 6 5 5 4 4 3 3 2 2 1 1 1 2 2 1 2 2 3 4 4 3
8 8 8 8 8 8 8 7 7 7 7 7 8 8 7 7 7 7 7 6 6 6 6 5 4 4 3 3 3 2 2 2 2 2 1 2 1 2 2 3 3 3 3
7 7 7 7 7 8 8 8 7 7 7 7 7 8 7 7 7 7 6 6 6 6 6 5 5 4 3 3 2 2 2 2 2 1 1 2 1 2 2 3 3 3 3
7 7 7 7 7 7 7 7 6 6 6 6 7 8 7 7 7 7 6 6 6 6 6 5 5 4 3 3 2 2 2 2 2 1 1 1 1 2 2 3 3 3 3
7 7 7 7 7 7 7 7 7 7 7 6 6 7 7 7 7 6 6 6 6 6 6 5 5 4 3 3 2 2 2 2 1 1 1 1 1 1 1 2 3 3 3
7 7 7 7 7 7 6 6 7 6 6 6 6 6 7 7 7 7 6 6 6 6 6 6 5 4 3 2 2 2 2 1 1 1 1 1 1 1 1 2 2 3 3
7 7 6 7 7 6 6 5 4 5 5 6 6 6 6 7 7 7 6 6 6 6 6 5 5 4 3 2 2 2 2 2 1 1 1 1 1 1 1 1 2 2 2

GFSSE_700_temp_117.txt.gz
Temp
14 13 12 12 12 12 10 10 9 9 9 8 8 8 8 8 7 7 7 7 7 8 7 7 7 7 6 6 6 6 6 6 6 6 6 6 6 6 6 6 6 6 6
13 12 12 12 12 12 11 9 9 9 8 8 8 8 8 8 7 7 7 7 7 7 7 7 7 7 6 6 6 6 6 6 6 6 6 6 6 6 6 5 5 5 6
13 13 12 12 12 12 11 10 9 8 8 8 8 8 8 7 7 6 6 7 7 7 7 7 7 6 6 6 6 6 6 6 6 6 6 6 6 6 5 5 5 5 5
13 13 12 12 12 12 11 10 9 9 8 8 8 8 7 7 7 6 6 6 6 6 6 6 6 6 6 6 6 6 6 6 6 6 6 6 6 6 5 5 5 5 5
13 12 12 12 12 12 11 11 10 9 9 9 8 8 7 7 7 6 6 6 6 6 6 6 6 6 6 6 6 6 6 6 6 6 6 6 5 5 5 5 5 5 5
12 12 12 12 12 12 11 11 10 10 9 9 9 8 7 7 7 6 6 6 6 6 6 6 6 6 6 6 6 6 6 6 6 6 5 5 5 4 4 5 5 5 6
12 12 12 12 12 11 11 11 10 10 10 9 9 8 7 7 7 6 6 5 6 5 5 6 5 5 5 5 5 5 6 6 6 5 5 5 5 4 4 4 5 5 5
11 11 11 11 11 11 11 11 10 10 10 9 9 8 7 7 7 6 6 6 5 5 5 5 5 5 5 5 5 5 5 5 5 5 5 5 4 4 3 3 4 4 5
11 11 11 11 11 11 11 10 10 10 10 9 9 8 8 7 6 6 6 5 5 5 5 5 5 4 4 4 4 4 4 4 5 4 5 4 4 4 1 3 4 4 5
11 11 11 11 11 11 10 10 10 10 10 9 9 8 8 7 7 6 6 5 5 5 5 5 4 4 4 4 4 4 4 3 4 4 3 4 4 3 3 3 3 4 4
11 10 11 11 10 10 10 10 10 9 9 9 9 8 8 7 7 6 6 5 5 4 5 4 4 4 4 4 4 4 3 3 4 3 4 3 3 4 3 3 3 4 4
11 10 10 11 10 10 10 10 9 9 9 9 8 8 8 8 7 7 6 6 5 4 4 4 4 4 4 4 3 4 3 3 3 3 3 2 2 3 2 2 3 4 5
11 10 10 10 10 10 9 10 9 9 9 9 8 8 8 8 7 7 6 6 5 5 5 4 4 4 4 3 3 3 4 3 3 3 2 2 2 3 3 3 4 4 5
10 10 9 9 9 9 9 9 9 9 9 8 8 8 8 7 7 7 7 6 5 5 5 5 4 4 3 3 3 3 3 4 3 3 2 2 2 2 3 2 3 4 5
10 9 9 9 9 9 9 9 9 9 9 8 8 8 8 7 7 7 7 7 6 5 5 5 4 4 4 3 3 3 3 3 3 3 2 2 2 2 2 1 3 4 4
9 9 9 9 8 8 8 8 9 9 8 8 8 8 8 7 7 7 7 7 6 6 5 5 4 4 4 3 3 3 3 3 3 3 3 2 2 2 2 1 3 4 4
9 9 9 9 8 8 8 8 8 8 8 8 8 7 8 8 7 7 7 7 6 6 6 5 5 4 4 4 4 3 3 3 3 3 3 2 2 2 2 1 2 3 3
8 8 8 9 8 7 7 7 7 7 8 8 8 8 7 7 7 7 7 6 6 6 6 6 5 4 4 4 4 3 3 3 2 2 2 2 2 2 1 1 2 3 3
7 8 8 8 8 7 8 7 7 7 7 7 7 7 7 7 7 7 7 7 6 6 6 6 5 5 4 4 3 3 3 3 2 2 1 2 2 2 1 1 2 3 3
7 8 8 8 8 8 8 7 7 7 7 7 7 7 7 7 7 7 7 7 6 6 6 6 5 5 4 4 3 3 2 2 2 2 2 2 2 2 1 2 2 3 3
7 8 8 8 8 8 8 8 8 8 7 7 7 7 7 7 7 7 7 7 6 6 6 6 5 5 5 4 3 3 3 2 2 2 2 2 2 2 2 2 2 3 3
8 8 7 7 7 8 8 8 8 8 7 7 7 7 7 7 7 7 7 7 6 6 6 6 6 5 5 4 3 3 2 2 2 2 2 2 1 1 2 2 2 3 3
7 8 7 7 7 7 7 7 7 7 8 6 6 6 6 7 7 7 7 6 6 6 6 6 5 5 5 4 3 2 2 2 3 2 2 2 1 1 1 1 2 3 3
7 7 8 7 7 7 7 7 7 7 8 7 7 7 6 7 6 7 7 6 6 6 6 5 5 5 5 5 3 2 2 2 2 2 2 2 2 1 1 1 2 3 3
7 7 7 7 7 7 7 7 6 6 6 6 6 6 6 6 6 6 6 6 6 6 6 5 5 5 4 4 3 2 2 1 1 1 1 1 2 1 1 1 1 2 2
7 7 7 7 7 7 7 7 6 6 6 6 5 5 5 5 5 6 6 6 6 6 6 5 5 5 5 4 3 2 2 2 2 1 1 1 1 1 1 1 1 2 2

GFSSE_700_temp_120.txt.gz
Temp
13 13 12 12 12 12 12 11 10 9 9 8 8 8 8 8 7 7 7 7 7 7 7 7 7 7 7 6 6 6 6 6 6 6 6 6 6 6 6 6 6 6 6
13 13 12 12 12 12 12 11 11 9 9 8 8 8 8 7 7 7 6 7 7 7 7 7 7 6 6 6 6 6 6 6 6 6 6 6 6 6 6 6 6 6 6
13 12 12 12 12 12 12 12 11 10 9 8 8 8 8 8 7 7 6 6 6 6 6 7 7 7 6 6 6 6 6 6 6 6 6 6 6 6 6 6 5 5 5
12 12 12 12 12 12 12 12 11 10 9 9 8 8 8 8 7 7 6 6 6 6 6 6 6 7 6 6 6 6 6 6 6 6 6 6 6 6 5 5 5 5 5
13 12 12 12 12 12 12 12 11 10 9 9 9 8 8 8 7 7 6 6 6 6 6 6 6 6 6 6 6 6 6 6 6 6 6 6 5 5 5 5 5 5 5
12 12 12 12 12 12 12 12 11 10 10 9 9 9 8 8 7 7 6 6 5 5 6 6 6 6 6 6 6 6 6 6 6 6 6 6 5 5 4 4 4 5 5
12 12 12 12 11 11 11 11 11 10 10 9 9 9 8 8 7 7 6 6 5 5 5 5 5 5 5 5 5 5 6 6 6 6 6 6 5 4 4 4 4 4 5
11 11 11 11 11 11 11 11 11 10 9 9 9 9 8 8 8 7 6 6 5 5 5 5 5 5 5 5 5 5 5 5 6 5 5 5 5 4 3 3 4 4 4
11 11 11 11 11 11 11 11 10 10 9 9 9 9 8 8 8 7 7 6 5 5 5 5 5 5 4 5 5 5 5 5 5 5 4 4 4 4 3 2 3 3 3
11 11 11 11 11 11 10 10 10 10 9 9 9 9 8 8 8 7 7 6 6 5 5 5 5 4 4 4 4 5 4 4 4 4 4 4 3 3 3 3 2 3 3
11 11 11 11 11 10 10 10 10 10 9 9 9 8 8 8 8 7 7 6 6 5 5 4 4 4 4 4 4 4 4 4 3 4 4 3 3 3 3 3 2 2 3
11 11 10 10 11 10 10 10 10 10 9 9 9 8 8 8 8 7 7 6 6 5 5 4 4 4 4 4 4 4 4 3 3 3 4 4 3 3 3 2 2 2 3
11 11 10 10 10 10 10 10 10 10 9 9 9 8 8 8 7 7 7 7 6 6 5 4 4 3 3 3 4 4 4 3 4 3 3 3 3 2 2 3 3 3 4
10 10 10 10 10 10 10 9 10 9 9 9 8 8 8 8 7 7 7 7 6 6 5 5 4 3 3 3 3 3 4 4 3 3 3 3 3 2 2 2 2 3 4
9 9 9 9 9 9 9 9 9 9 9 9 8 8 8 8 7 7 7 7 7 6 6 5 4 3 3 3 3 3 3 4 4 3 3 3 3 2 2 2 2 3 3
9 9 9 9 9 9 9 9 9 9 8 8 8 8 8 8 7 7 7 7 7 6 6 5 4 4 3 3 3 3 3 3 4 3 3 3 3 3 2 2 2 2 3
8 8 8 8 8 9 8 8 8 8 8 8 8 8 7 7 7 7 7 7 6 6 6 6 5 4 4 3 3 3 3 3 3 3 3 3 3 3 2 2 3 1 2
8 8 8 8 8 8 8 8 7 7 7 7 7 7 7 7 7 7 7 7 6 6 6 6 6 5 4 4 3 3 3 3 3 3 3 3 3 2 2 2 2 1 2
7 7 7 7 7 8 8 8 7 7 7 7 7 7 7 7 7 7 7 7 7 7 6 6 6 5 5 4 3 3 3 3 3 3 3 3 3 2 2 2 2 1 2
6 6 6 7 7 7 7 7 7 7 7 7 7 7 7 7 7 7 7 6 7 7 6 6 6 6 5 4 3 3 3 3 2 3 3 3 3 2 2 2 2 1 1
7 7 7 7 7 7 7 7 7 8 8 7 7 7 7 7 7 6 7 7 6 6 6 6 6 6 5 4 4 3 3 3 3 3 3 3 2 2 2 2 1 1 2
6 6 7 7 7 7 7 7 7 7 8 7 7 7 7 7 6 6 7 7 6 6 6 6 6 6 6 5 4 4 4 2 3 2 3 3 2 1 1 1 1 1 2
6 6 7 7 7 7 7 7 7 7 7 7 7 7 7 6 6 6 6 7 6 6 6 6 6 6 6 5 5 4 3 3 2 2 3 2 2 2 1 1 1 1 1
5 6 6 6 7 7 7 7 7 7 7 7 7 7 6 6 6 6 6 6 6 6 6 6 6 6 6 6 5 4 4 3 1 1 2 2 2 1 1 1 1 1 1
4 5 5 6 6 7 7 7 6 6 6 6 7 6 6 6 6 6 6 6 6 6 6 6 6 5 5 5 5 5 4 2 1 1 1 3 2 1 1 1 1 1 1
5 5 5 6 6 7 7 7 7 6 7 6 6 7 7 5 5 5 6 5 5 5 5 5 5 5 5 5 5 5 4 3 1 1 1 2 2 2 1 1 1 0 1

GFSSE_700_temp_123.txt.gz
Temp
13 13 12 12 12 12 12 12 11 11 10 9 8 8 8 8 8 7 7 7 7 7 7 7 7 7 7 7 6 6 7 6 6 6 6 6 6 7 6 6 6 6 6
13 13 12 12 12 12 12 12 11 11 10 9 8 8 8 8 8 8 7 6 7 7 7 7 7 7 7 6 6 6 6 6 6 6 6 6 6 6 6 6 6 6 6
13 12 12 12 12 12 12 12 11 11 10 9 8 8 8 8 8 8 7 6 6 6 6 6 7 7 7 6 6 6 6 6 6 6 6 6 6 6 6 6 6 6 6
13 12 12 12 12 12 12 11 11 10 10 9 9 8 8 8 8 8 7 7 6 6 6 6 6 6 7 6 6 6 6 6 6 6 6 6 6 5 5 6 5 5 5
13 12 12 12 12 12 11 11 11 10 9 9 9 8 9 8 8 8 7 7 6 6 6 6 6 6 6 6 6 6 6 6 6 6 6 6 6 5 5 5 5 5 5
12 12 12 12 12 11 11 11 11 10 10 9 9 9 8 9 8 8 7 7 6 5 5 6 6 6 6 6 6 6 6 6 6 6 6 6 6 5 5 5 5 5 5
11 11 11 11 11 11 11 11 10 10 10 9 9 9 8 8 8 8 7 6 6 5 5 5 6 6 6 6 6 6 6 6 6 6 6 6 5 5 4 4 4 4 4
11 11 11 11 11 11 11 11 10 10 10 9 9 8 8 8 8 7 7 6 6 5 5 5 5 5 5 5 5 5 5 6 6 6 5 5 5 4 4 3 3 3 4
11 11 11 11 11 11 10 10 10 10 10 9 9 8 8 8 8 7 7 6 6 5 5 5 5 5 5 5 5 5 5 5 5 5 5 5 4 4 3 2 2 3 3
11 11 11 11 11 11 10 10 10 10 10 9 9 8 8 8 7 7 7 6 6 5 5 5 5 5 5 5 4 4 5 4 4 4 4 4 4 4 3 3 2 2 3
10 11 11 11 11 11 10 10 10 10 9 9 9 9 8 8 7 7 7 6 6 5 5 5 4 4 4 4 4 4 4 4 4 4 4 4 4 3 3 2 2 2 2
10 10 11 11 11 10 10 10 10 10 9 9 9 9 8 8 8 7 7 6 6 6 5 5 4 4 4 4 4 4 4 4 4 3 4 4 4 3 3 3 3 2 1
10 10 10 10 10 10 10 10 10 10 9 9 9 9 8 8 8 7 7 6 6 6 5 5 5 4 4 4 4 4 4 4 4 3 4 4 4 3 3 1 2 3 4
9 10 10 10 10 10 10 10 9 10 9 9 9 8 8 8 8 7 7 7 6 6 5 5 5 4 4 4 3 3 3 4 3 3 3 4 4 3 3 2 2 3 3
9 9 9 9 9 9 9 9 9 9 9 8 8 8 8 8 8 8 7 7 6 6 6 5 5 4 4 4 3 3 3 3 3 3 3 3 3 3 3 2 2 2 3
8 9 9 9 9 9 9 9 9 9 9 8 8 8 8 8 8 7 7 7 7 6 6 6 5 4 4 4 4 4 3 3 3 3 3 3 3 3 3 2 3 2 2
8 8 9 9 9 9 9 8 8 8 8 8 8 7 7 7 7 7 7 7 7 6 6 6 5 5 5 4 4 4 3 3 3 3 3 3 3 3 2 2 2 1 2
7 8 8 8 8 8 8 8 8 8 7 8 7 7 7 7 7 7 7 7 7 7 6 6 6 5 5 5 4 4 3 3 3 3 3 3 3 3 3 3 2 2 2
7 7 8 8 8 8 7 7 7 7 7 7 7 7 7 7 7 7 7 7 7 7 6 6 6 6 5 5 4 4 4 3 3 3 3 3 2 2 3 3 2 2 2
7 7 8 8 7 7 7 7 6 6 6 7 7 7 7 7 7 7 7 7 6 7 6 6 6 6 5 5 5 4 4 3 3 3 3 3 3 2 2 2 2 2 2
6 7 7 7 7 7 7 6 6 6 7 7 7 7 7 7 7 7 6 6 6 6 6 6 6 6 6 5 5 5 5 4 4 3 3 3 3 2 2 2 2 2 2
6 6 7 7 7 6 7 6 6 6 6 6 7 7 7 7 7 7 6 6 6 6 6 6 6 6 6 6 6 5 5 5 5 4 4 2 3 2 2 1 2 1 1
6 6 7 7 6 6 6 6 6 6 7 7 7 7 7 7 7 6 6 6 6 6 6 6 6 6 6 5 6 5 6 6 5 4 3 3 2 2 2 1 1 1 1
5 6 6 6 7 7 7 7 7 7 7 7 7 7 7 7 6 6 6 6 6 6 6 6 6 6 6 6 5 5 5 5 5 5 3 3 1 1 2 1 1 1 0
4 5 6 6 6 6 6 7 7 7 7 7 7 7 7 6 6 6 6 6 6 5 5 5 5 5 6 5 5 5 5 5 5 5 4 3 2 2 1 1 1 1 1
3 4 5 6 6 6 6 6 6 7 7 6 6 6 7 6 6 6 5 5 5 4 4 4 5 5 5 5 5 5 5 5 5 4 4 3 3 3 2 2 1 1 1

GFSSE_700_temp_126.txt.gz
Temp
14 13 13 12 12 12 12 12 11 10 9 9 9 8 8 8 8 8 7 7 7 7 7 7 7 7 7 7 7 7 7 7 7 7 7 6 6 6 7 6 6 6 6
14 13 13 12 12 12 12 12 11 10 9 9 8 8 8 8 8 8 7 7 7 7 7 7 7 7 7 7 6 6 6 6 6 7 7 6 7 6 6 6 6 6 6
13 12 12 12 12 12 12 12 11 10 9 9 8 8 8 8 8 8 7 7 7 7 7 7 7 7 7 7 6 6 6 6 6 6 6 6 6 6 6 6 5 5 6
13 12 12 12 12 12 12 12 11 10 9 9 8 8 8 8 8 8 7 7 6 6 6 6 6 7 7 7 6 6 6 6 6 6 6 6 6 6 5 5 5 5 5
12 12 12 11 12 12 12 11 11 10 10 9 8 8 8 8 8 8 7 7 6 6 6 6 6 6 6 6 6 6 6 6 6 6 6 6 6 5 5 5 5 4 5
12 12 11 12 12 12 11 11 11 10 9 9 8 8 8 8 8 7 7 7 6 6 6 6 6 6 6 6 6 6 6 6 6 6 6 6 5 5 5 5 5 4 4
12 12 11 11 11 11 11 11 10 10 9 9 9 8 8 8 7 7 7 7 6 6 6 6 6 6 6 6 6 6 6 6 6 5 5 5 5 5 5 4 4 4 4
11 11 11 11 11 11 11 11 10 10 9 9 9 8 8 8 7 7 7 6 6 6 5 6 6 6 6 6 6 6 6 6 6 5 4 4 4 5 4 3 3 3 3
11 11 11 11 11 11 11 10 10 10 9 9 8 8 8 8 7 7 6 6 6 6 6 5 5 5 5 5 5 5 5 5 5 5 4 4 5 4 4 3 2 2 2
10 11 11 11 11 10 10 10 10 10 9 9 8 8 8 8 7 7 6 6 6 6 5 5 5 5 5 5 5 5 5 5 5 4 4 4 4 4 4 3 4 3 3
10 10 10 10 10 10 10 10 10 10 9 9 8 8 8 8 8 7 7 6 6 5 5 5 5 5 5 4 5 5 5 5 5 4 4 4 4 4 4 4 4 3 2
9 10 10 10 10 10 10 10 10 10 9 9 9 8 8 8 8 7 7 7 6 6 5 5 4 4 4 4 4 4 5 5 4 4 4 4 4 4 4 3 3 3 3
9 9 10 10 10 10 10 10 10 10 9 9 9 9 8 8 8 8 7 7 6 6 6 5 5 4 4 4 4 4 4 4 4 4 4 4 4 4 3 3 2 2 2
9 9 10 10 10 10 10 10 10 10 9 9 9 8 8 8 8 7 7 7 7 6 6 5 5 4 4 4 4 4 4 4 4 4 4 4 4 3 3 3 3 1 2
9 9 10 9 10 10 10 10 10 9 9 9 9 8 8 8 7 7 7 7 7 7 6 6 5 5 4 4 4 4 4 3 3 3 3 3 4 3 3 3 2 1 1
8 9 9 9 9 9 9 9 9 9 9 8 8 8 8 8 8 7 7 7 7 7 6 6 6 5 5 5 4 4 4 4 4 3 3 3 3 3 3 3 3 2 1
7 8 9 9 9 9 9 9 9 9 9 8 8 8 8 8 7 7 7 7 7 7 6 6 6 6 5 5 5 4 4 4 4 4 3 3 3 3 3 3 3 2 2
7 7 8 9 9 9 9 9 9 9 8 8 8 8 7 7 7 7 7 7 7 7 6 6 6 6 6 5 5 5 4 4 4 4 3 3 3 3 3 3 3 2 2
7 7 6 8 8 8 8 8 8 8 8 8 7 7 7 7 7 7 7 7 7 7 7 6 6 6 6 6 5 5 5 4 4 4 3 4 3 3 3 3 3 3 2
6 7 6 7 8 8 8 8 8 8 7 7 7 7 7 7 7 7 7 7 7 7 7 6 6 6 6 6 6 5 5 5 4 4 4 4 3 3 3 3 3 2 2
5 6 6 6 7 8 8 8 8 7 7 7 7 7 7 7 7 7 7 7 7 7 7 6 6 6 6 6 6 6 6 6 5 5 5 4 4 3 3 3 3 2 2
3 5 6 6 6 7 8 8 7 7 7 7 6 6 6 7 7 7 7 7 7 6 6 6 6 6 6 6 6 6 6 6 6 6 5 5 4 4 4 3 3 3 2
1 3 5 6 6 7 7 7 7 6 6 6 7 6 7 7 7 7 7 7 7 6 6 6 6 6 6 5 5 5 6 6 6 6 5 5 5 4 3 3 3 2 2
0 1 3 6 6 6 7 7 6 7 7 7 6 6 7 7 7 7 7 6 6 6 6 6 5 5 5 5 5 5 5 5 5 5 6 5 5 4 3 2 3 3 2
0 1 2 4 5 6 6 6 6 5 6 6 6 7 7 7 6 6 6 6 6 6 6 6 5 5 5 5 5 5 5 5 5 5 5 5 5 4 3 3 2 2 2
0 1 2 3 5 5 6 7 5 2 6 6 7 7 7 7 7 7 6 6 6 6 5 5 4 4 4 4 4 4 4 4 5 5 5 5 5 5 3 3 2 2 2

GFSSE_700_temp_129.txt.gz
Temp
12 14 13 12 12 12 12 12 12 10 10 9 8 8 8 8 8 8 8 7 7 7 7 7 7 7 7 7 7 7 7 7 7 6 6 6 6 6 6 6 6 6 6
11 13 13 12 12 12 12 12 12 11 10 9 8 8 8 8 8 8 8 7 7 7 7 7 7 7 7 7 7 7 7 7 6 6 6 6 6 6 6 6 6 6 6
12 13 12 12 12 12 12 12 11 10 10 9 9 8 8 8 8 7 7 7 7 7 7 7 7 7 7 7 7 7 6 6 6 6 6 6 6 6 6 6 5 6 5
12 13 12 12 12 12 12 12 11 11 9 8 8 8 8 8 7 7 7 7 7 7 6 6 7 7 7 7 7 6 6 6 6 6 6 6 6 6 6 6 5 5 5
13 13 12 12 12 12 12 11 11 10 10 9 8 8 8 7 7 7 7 7 6 6 6 6 6 6 6 7 6 7 6 6 6 6 6 5 5 5 5 5 5 5 4
12 12 12 12 11 12 12 11 11 10 10 9 8 8 7 7 7 7 7 6 6 6 6 6 6 6 6 6 6 6 6 6 6 6 6 5 5 5 4 4 4 4 4
12 12 11 11 11 11 11 11 10 10 9 9 8 8 7 7 7 7 7 6 6 6 6 6 6 6 6 6 6 6 6 6 6 6 6 5 5 5 5 4 4 4 3
12 12 11 11 11 11 11 10 10 9 9 8 8 8 7 7 7 7 7 6 6 6 6 6 6 6 6 6 6 6 5 5 5 5 5 4 5 4 4 4 4 3 3
11 11 11 11 11 11 11 10 10 9 9 8 8 8 7 7 7 7 7 6 6 6 5 5 6 5 5 5 5 5 5 5 5 5 5 5 4 4 4 3 3 2 3
11 11 11 11 11 11 10 10 10 9 9 8 8 8 8 7 7 7 7 7 6 6 5 5 5 5 5 5 5 5 5 5 5 5 5 4 4 4 4 3 3 3 2
10 10 10 10 11 11 10 10 10 10 9 9 9 8 8 8 8 7 7 7 6 6 6 5 5 5 5 5 5 5 5 4 5 5 5 4 4 4 4 3 3 3 3
9 9 10 10 10 10 10 10 10 10 10 10 9 9 9 8 8 7 7 6 6 6 6 6 5 5 5 4 4 4 4 4 4 4 4 4 4 4 4 4 3 3 3
7 7 9 10 10 10 10 10 10 10 10 10 9 9 9 8 8 8 7 7 7 7 6 6 6 5 5 4 4 4 4 4 3 3 5 4 4 4 4 3 3 3 2
6 6 7 9 10 10 10 10 10 9 10 9 9 9 9 8 8 7 7 7 7 7 6 6 6 5 5 4 4 4 3 4 4 3 4 4 4 4 4 3 3 3 2
6 6 5 7 9 10 10 10 9 9 9 9 9 9 9 8 8 8 7 7 7 6 6 6 6 6 5 5 5 4 4 4 4 3 3 4 4 4 4 3 3 3 3
6 5 6 6 8 9 10 9 10 9 9 9 9 9 9 8 8 7 7 7 7 6 6 6 6 6 6 6 5 5 4 3 4 3 3 4 4 3 4 3 3 3 3
7 7 6 5 8 8 9 9 9 9 9 9 9 8 8 8 8 8 7 7 7 7 6 6 6 6 6 6 5 5 5 5 4 4 3 3 4 4 3 4 3 3 3
7 6 6 4 5 8 8 9 9 9 9 9 8 8 8 8 8 8 7 7 7 7 7 6 6 6 6 6 6 5 5 5 5 4 4 3 4 4 4 3 3 3 3
2 5 5 5 5 6 8 8 8 8 9 8 8 8 8 8 8 8 7 7 7 7 7 7 6 6 6 6 6 5 5 5 5 5 4 4 4 3 4 4 3 3 3
-0 1 4 5 5 3 7 7 8 8 8 8 8 8 8 8 7 7 7 7 7 7 7 7 7 6 6 6 6 6 6 6 5 5 5 4 4 4 4 4 3 3 3
-2 1 4 6 6 4 4 6 8 8 8 9 8 8 8 8 7 7 7 7 7 7 7 6 6 6 6 6 6 6 6 6 6 6 5 5 5 5 5 4 4 3 3
-1 -1 1 5 4 5 4 5 7 8 8 8 8 8 8 7 7 7 7 7 7 7 7 7 6 6 6 6 6 6 6 6 6 6 6 6 5 5 5 5 4 4 3
-0 -0 -0 1 3 3 4 5 5 6 8 8 8 7 7 7 7 7 7 7 7 7 7 7 6 6 6 6 6 5 6 6 5 6 6 6 6 6 5 5 5 4 3
-1 -1 -1 0 1 2 3 5 4 5 7 8 7 7 7 7 6 7 6 6 7 7 6 7 6 6 5 5 6 6 6 5 5 3 5 6 6 6 5 5 5 4 3
-2 -1 -1 -1 0 1 2 5 5 5 6 7 7 6 6 6 6 6 6 6 6 6 7 6 6 6 6 5 5 5 5 5 5 4 5 4 5 6 5 5 5 4 3
-3 -2 -2 -0 0 1 2 4 5 5 6 5 6 5 6 6 6 6 6 6 6 6 7 6 6 5 5 4 5 4 4 5 5 4 4 4 4 4 5 5 5 4 3